Latitude: N 50° 09' 49" Longitude: W 05° 11' 53" Elevation: 168m ASL

There are 19 visitors online

Adverts

<- Previous Day | Today | Next Day ->

All Data for 17 April 2018

Time
A - D
Temp
A - D
Dew Point
A - D
Humidity
A - D
Pressure
A - D
Wind
A - D
Wind Dir Gust
A - D
Rain Rate
A - D
Rain Total
00:01 10.6 10.1 97 1010.7 27.3 S 30.4 0.0 0.0
00:03 10.6 10.1 97 1010.6 27.3 S 30.4 0.0 0.0
00:04 10.6 10.1 97 1010.9 27.3 S 30.4 0.0 0.0
00:06 10.6 10.1 97 1010.5 32.0 S 32.0 0.0 0.0
00:07 10.6 10.1 97 1010.5 28.2 S 32.0 0.0 0.0
00:09 10.6 10.1 97 1010.6 22.8 E 32.0 0.0 0.0
00:10 10.6 10.1 97 1010.5 21.3 SE 32.0 0.0 0.0
00:11 10.6 10.1 97 1010.5 23.5 SE 32.0 0.0 0.0
00:13 10.6 10.1 97 1010.5 31.1 SE 32.0 0.0 0.0
00:14 10.6 10.1 97 1010.5 22.8 SE 32.0 0.0 0.0
00:15 10.6 10.1 97 1010.6 25.1 SE 32.0 0.0 0.0
00:16 10.6 10.1 97 1010.4 22.8 SE 31.1 0.0 0.0
00:17 10.6 10.1 97 1010.6 29.8 S 31.1 0.0 0.0
00:18 10.6 10.1 97 1010.7 26.6 SE 31.1 0.0 0.0
00:19 10.6 10.1 97 1010.9 26.6 S 31.1 0.0 0.0
00:20 10.6 10.1 97 1010.8 25.9 S 31.1 0.0 0.0
00:21 10.6 10.1 97 1010.8 28.9 S 31.1 0.0 0.0
00:22 10.6 10.1 97 1010.8 19.0 SE 31.1 0.0 0.0
00:24 10.6 10.1 97 1010.9 27.3 S 29.8 0.0 0.0
00:25 10.6 10.1 97 1010.7 25.9 S 29.8 0.0 0.0
00:26 10.6 10.1 97 1010.7 22.1 S 29.8 0.0 0.0
00:27 10.6 10.1 97 1011.0 22.1 S 29.8 0.0 0.0
00:28 10.6 10.1 97 1010.7 21.3 S 29.8 0.0 0.0
00:29 10.6 10.0 96 1010.7 26.6 SE 28.9 0.0 0.0
00:30 10.6 10.0 96 1010.9 28.2 SE 28.9 0.0 0.0
00:31 10.6 10.1 97 1010.8 27.3 SE 28.9 0.0 0.0
00:32 10.6 10.0 96 1010.6 26.6 SE 28.2 0.0 0.0
00:33 10.6 10.0 96 1010.8 25.9 S 28.2 0.0 0.0
00:34 10.6 10.0 96 1010.9 27.3 SE 28.2 0.0 0.0
00:35 10.6 10.0 96 1010.7 22.8 S 28.2 0.0 0.0
00:36 10.6 10.0 96 1010.9 25.9 SE 28.2 0.0 0.0
00:37 10.6 10.0 96 1010.8 34.9 SE 34.9 0.0 0.0
00:38 10.6 10.0 96 1010.9 26.6 SE 34.9 0.0 0.0
00:39 10.6 10.0 96 1010.8 25.1 S 34.9 0.0 0.0
00:40 10.7 10.1 96 1010.7 22.1 S 34.9 0.0 0.0
00:41 10.6 10.0 96 1010.6 28.2 S 34.9 0.0 0.0
00:42 10.6 10.0 96 1010.5 23.5 SE 34.9 0.0 0.0
00:43 10.6 10.0 96 1010.8 21.3 SE 34.9 0.0 0.0
00:44 10.6 10.0 96 1010.8 30.4 SE 34.9 0.0 0.0
00:45 10.6 10.0 96 1010.8 20.6 SE 34.9 0.0 0.0
00:47 10.6 10.0 96 1010.8 21.3 S 34.9 0.0 0.0
00:48 10.6 10.0 96 1010.8 25.9 SE 30.4 0.0 0.0
00:49 10.6 10.0 96 1010.8 23.5 SE 30.4 0.0 0.0
00:50 10.6 10.0 96 1010.8 28.9 N 30.4 0.0 0.0
00:51 10.6 10.0 96 1010.7 22.8 SE 30.4 0.0 0.0
00:52 10.6 10.0 96 1010.9 24.4 S 30.4 0.0 0.0
00:53 10.6 10.0 96 1010.9 25.1 S 30.4 0.0 0.0
00:54 10.6 10.0 96 1010.9 30.4 SE 30.4 0.0 0.0
00:55 10.6 10.0 96 1010.8 25.1 S 30.4 0.0 0.0
00:57 10.6 10.0 96 1010.9 26.6 SE 30.4 0.0 0.0
00:58 10.6 10.0 96 1010.9 24.4 S 30.4 0.0 0.0
00:59 10.6 10.0 96 1010.8 24.4 N 30.4 0.0 0.0
01:00 10.6 10.0 96 1011.0 23.5 SE 30.4 0.0 0.0
01:01 10.6 10.0 96 1010.7 23.5 SE 30.4 0.0 0.0
01:02 10.6 10.0 96 1010.9 27.3 S 30.4 0.0 0.0
01:03 10.6 10.0 96 1010.7 22.8 S 30.4 0.0 0.0
01:04 10.6 10.0 96 1010.9 21.3 SE 30.4 0.0 0.0
01:05 10.6 10.0 96 1010.8 20.6 S 27.3 0.0 0.0
01:06 10.6 10.0 96 1010.8 19.0 E 27.3 0.0 0.0
01:07 10.6 10.0 96 1010.9 29.8 E 29.8 0.0 0.0
01:08 10.6 10.0 96 1010.9 22.1 S 29.8 0.0 0.0
01:09 10.6 10.0 96 1010.9 25.1 S 29.8 0.0 0.0
01:10 10.6 10.0 96 1010.7 20.6 SE 29.8 0.0 0.0
01:11 10.6 10.0 96 1010.8 22.1 SW 29.8 0.0 0.0
01:12 10.6 10.0 96 1010.8 32.0 S 32.0 0.0 0.0
01:13 10.6 10.0 96 1010.8 28.9 S 32.0 0.0 0.0
01:14 10.6 10.0 96 1011.0 25.1 S 32.0 0.0 0.0
01:15 10.6 10.0 96 1010.8 22.1 S 32.0 0.0 0.0
01:16 10.6 10.0 96 1010.7 27.3 S 32.0 0.0 0.0
01:17 10.6 10.0 96 1010.8 22.1 S 32.0 0.0 0.0
01:19 10.6 10.0 96 1010.8 22.8 S 32.0 0.0 0.0
01:20 10.6 10.0 96 1010.7 25.1 S 32.0 0.0 0.0
01:21 10.6 10.0 96 1010.9 28.2 S 32.0 0.0 0.0
01:22 10.6 10.0 96 1010.8 23.5 SE 32.0 0.0 0.0
01:23 10.6 10.0 96 1010.7 27.3 SE 28.9 0.0 0.0
01:24 10.6 10.0 96 1010.9 25.1 WNW 28.2 0.0 0.0
01:25 10.6 10.0 96 1010.8 27.3 SE 28.2 0.0 0.0
01:26 10.6 10.0 96 1010.9 27.3 SE 28.2 0.0 0.0
01:27 10.6 10.0 96 1010.8 20.6 SW 28.2 0.0 0.0
01:28 10.6 10.0 96 1010.7 25.9 S 28.2 0.0 0.0
01:29 10.6 10.0 96 1010.8 25.1 S 32.7 0.0 0.0
01:30 10.6 10.0 96 1010.7 27.3 S 32.7 0.0 0.0
01:31 10.7 10.1 96 1011.1 21.3 SE 32.7 0.0 0.0
01:32 10.7 10.1 96 1010.8 32.0 S 32.7 0.0 0.0
01:33 10.6 10.0 96 1010.6 25.1 S 32.7 0.0 0.0
01:34 10.6 10.0 96 1010.7 24.4 S 32.7 0.0 0.0
01:35 10.7 10.1 96 1010.7 25.1 SE 32.7 0.0 0.0
01:36 10.7 10.1 96 1010.6 22.1 S 32.7 0.0 0.0
01:37 10.6 10.0 96 1010.4 20.6 S 32.7 0.0 0.0
01:38 10.7 10.1 96 1010.6 24.4 SE 32.7 0.0 0.0
01:40 10.7 10.1 96 1010.6 28.2 SE 32.0 0.0 0.0
01:41 10.7 10.1 96 1010.5 32.7 S 32.7 0.0 0.0
01:42 10.7 10.1 96 1010.7 22.1 S 32.7 0.0 0.0
01:43 10.7 10.1 96 1010.4 27.3 S 32.7 0.0 0.0
01:44 10.7 10.1 96 1010.6 25.9 SE 32.7 0.0 0.0
01:45 10.7 10.1 96 1010.6 25.9 SE 32.7 0.0 0.0
01:46 10.7 10.1 96 1010.4 25.1 SE 32.7 0.0 0.0
01:47 10.7 9.9 95 1010.5 24.4 W 32.7 0.0 0.0
01:48 10.7 10.1 96 1010.5 19.7 S 32.7 0.0 0.0
01:49 10.7 9.9 95 1010.5 28.9 SE 32.7 0.0 0.0
01:50 10.7 9.9 95 1010.6 34.9 SE 34.9 0.0 0.0
01:51 10.7 9.9 95 1010.6 28.2 E 34.9 0.0 0.0
01:52 10.7 9.9 95 1010.7 27.3 S 34.9 0.0 0.0
01:53 10.7 9.9 95 1010.7 25.1 S 34.9 0.0 0.0
01:54 10.7 9.9 95 1010.8 28.9 S 34.9 0.0 0.0
01:55 10.7 9.9 95 1010.8 27.3 SE 34.9 0.0 0.0
01:56 10.7 9.9 95 1010.7 28.2 S 34.9 0.0 0.0
01:58 10.7 9.9 95 1010.4 19.0 S 34.9 0.0 0.0
01:59 10.7 9.9 95 1010.4 21.3 SE 34.9 0.0 0.0
02:00 10.7 9.9 95 1010.7 31.1 SE 34.9 0.0 0.0
02:01 10.7 9.9 95 1010.5 31.1 SE 31.1 0.0 0.0
02:02 10.7 9.9 95 1010.5 31.1 SE 31.1 0.0 0.0
02:03 10.7 9.9 95 1010.5 31.1 SE 31.1 0.0 0.0
02:04 10.7 9.9 95 1010.5 31.1 SE 31.1 0.0 0.0
02:05 10.7 9.9 95 1010.6 31.1 SE 31.1 0.0 0.0
02:06 10.7 9.9 95 1010.4 28.9 SE 31.1 0.0 0.0
02:07 10.7 9.9 95 1010.4 23.5 NNE 31.1 0.0 0.0
02:08 10.7 9.9 95 1010.5 27.3 NNE 31.1 0.0 0.0
02:09 10.7 9.9 95 1010.3 25.9 SE 31.1 0.0 0.0
02:10 10.7 9.9 95 1010.4 23.5 SE 31.1 0.0 0.0
02:11 10.7 9.9 95 1010.3 26.6 SE 32.7 0.0 0.0
02:13 10.7 9.9 95 1010.5 20.6 S 32.7 0.0 0.0
02:14 10.7 9.9 95 1010.6 32.0 SE 32.7 0.0 0.0
02:15 10.7 9.9 95 1010.5 33.6 S 33.6 0.0 0.0
02:16 10.7 9.9 95 1010.6 23.5 SE 33.6 0.0 0.0
02:17 10.7 9.9 95 1010.7 27.3 S 33.6 0.0 0.0
02:18 10.7 9.9 95 1010.5 23.5 E 33.6 0.0 0.0
02:19 10.7 9.9 95 1010.5 18.3 SE 33.6 0.0 0.0
02:20 10.7 9.9 95 1010.7 29.8 SE 33.6 0.0 0.0
02:21 10.7 9.9 95 1010.7 21.3 S 33.6 0.0 0.0
02:22 10.7 9.9 95 1010.7 30.4 S 33.6 0.0 0.0
02:23 10.7 9.8 94 1010.5 30.4 SE 33.6 0.0 0.0
02:24 10.7 9.8 94 1010.6 31.1 S 33.6 0.0 0.0
02:25 10.7 9.8 94 1010.7 32.0 S 32.0 0.0 0.0
02:26 10.7 9.8 94 1010.5 34.9 S 34.9 0.0 0.0
02:27 10.7 9.8 94 1010.4 23.5 SE 34.9 0.0 0.0
02:28 10.7 9.8 94 1010.6 25.9 SE 34.9 0.0 0.0
02:29 10.7 9.8 94 1010.7 19.7 SE 34.9 0.0 0.0
02:30 10.7 9.8 94 1010.6 26.6 S 34.9 0.0 0.0
02:31 10.7 9.8 94 1010.4 22.1 SE 34.9 0.0 0.0
02:33 10.7 9.8 94 1010.7 24.4 S 34.9 0.0 0.0
02:34 10.7 9.8 94 1010.7 24.4 S 34.9 0.0 0.0
02:35 10.7 9.8 94 1010.7 26.6 SE 34.9 0.0 0.0
02:36 10.7 9.8 94 1010.5 19.0 SE 34.9 0.0 0.0
02:37 10.7 9.8 94 1010.5 18.3 SE 31.1 0.0 0.0
02:38 10.7 9.8 94 1010.6 24.4 S 31.1 0.0 0.0
02:39 10.7 9.8 94 1010.6 25.1 S 31.1 0.0 0.0
02:40 10.7 9.8 94 1010.6 24.4 S 31.1 0.0 0.0
02:41 10.7 9.8 94 1010.6 26.6 S 31.1 0.0 0.0
02:42 10.7 9.8 94 1010.6 22.1 SE 31.1 0.0 0.0
02:43 10.7 9.8 94 1010.6 30.4 S 31.1 0.0 0.0
02:44 10.7 9.8 94 1010.6 28.9 SW 30.4 0.0 0.0
02:45 10.7 9.8 94 1010.4 22.1 S 30.4 0.0 0.0
02:46 10.7 9.8 94 1010.3 23.5 S 30.4 0.0 0.0
02:47 10.7 9.6 93 1010.5 27.3 S 30.4 0.0 0.0
02:48 10.7 9.6 93 1010.6 33.6 SE 33.6 0.0 0.0
02:49 10.7 9.6 93 1010.5 31.1 S 33.6 0.0 0.0
02:50 10.7 9.6 93 1010.6 25.1 SE 33.6 0.0 0.0
02:52 10.7 9.6 93 1010.4 26.6 S 33.6 0.0 0.0
02:53 10.8 9.7 93 1010.4 23.5 SE 33.6 0.0 0.0
02:54 10.8 9.7 93 1010.6 23.5 SE 33.6 0.0 0.0
02:55 10.8 9.7 93 1010.3 31.1 SE 33.6 0.0 0.0
02:56 10.8 9.7 93 1010.3 32.7 SE 33.6 0.0 0.0
02:57 10.8 9.7 93 1010.4 27.3 SE 33.6 0.0 0.0
02:58 10.8 9.7 93 1010.5 25.9 SE 33.6 0.0 0.0
02:59 10.8 9.7 93 1010.4 23.5 SE 32.7 0.0 0.0
03:00 10.8 9.7 93 1010.2 26.6 S 32.7 0.0 0.0
03:01 10.8 9.7 93 1010.4 26.6 S 32.7 0.0 0.0
03:02 10.8 9.7 93 1010.4 29.8 SE 32.7 0.0 0.0
03:03 10.8 9.6 92 1010.3 26.6 S 32.7 0.0 0.0
03:04 10.8 9.6 92 1010.2 26.6 S 32.7 0.0 0.0
03:05 10.8 9.6 92 1010.4 21.3 S 32.7 0.0 0.0
03:06 10.8 9.6 92 1010.4 27.3 S 29.8 0.0 0.0
03:07 10.8 9.6 92 1010.2 28.9 S 29.8 0.0 0.0
03:08 10.8 9.6 92 1010.4 29.8 SE 29.8 0.0 0.0
03:09 10.8 9.6 92 1010.4 22.1 SE 29.8 0.0 0.0
03:10 10.8 9.6 92 1010.2 22.8 SE 29.8 0.0 0.0
03:12 10.8 9.6 92 1010.2 29.8 SE 29.8 0.0 0.0
03:13 10.8 9.6 92 1010.2 24.4 S 29.8 0.0 0.0
03:14 10.8 9.6 92 1010.2 22.1 S 32.0 0.0 0.0
03:15 10.8 9.6 92 1010.5 22.1 S 32.0 0.0 0.0
03:16 10.8 9.6 92 1010.3 37.4 S 37.4 0.0 0.0
03:17 10.8 9.4 91 1010.5 24.4 S 37.4 0.0 0.0
03:18 10.8 9.4 91 1010.2 28.9 S 37.4 0.0 0.0
03:19 10.8 9.4 91 1010.5 22.1 S 37.4 0.0 0.0
03:20 10.8 9.4 91 1010.2 19.7 WNW 37.4 0.0 0.0
03:21 10.9 9.5 91 1010.5 21.3 SE 37.4 0.0 0.0
03:22 10.9 9.5 91 1010.7 37.4 SE 37.4 0.0 0.0
03:23 10.8 9.4 91 1010.4 34.2 SE 37.4 0.0 0.0
03:24 10.9 9.5 91 1010.4 25.9 S 37.4 0.0 0.0
03:25 10.9 9.5 91 1010.7 26.6 S 37.4 0.0 0.0
03:26 10.9 9.5 91 1010.5 30.4 S 37.4 0.0 0.0
03:27 10.9 9.5 91 1010.6 24.4 SE 37.4 0.0 0.0
03:29 10.9 9.3 90 1010.6 34.2 S 37.4 0.0 0.0
03:30 10.9 9.3 90 1010.5 32.0 S 37.4 0.0 0.0
03:31 10.9 9.3 90 1010.4 28.2 SE 37.4 0.0 0.0
03:32 10.9 9.3 90 1010.8 31.1 S 37.4 0.0 0.0
03:33 10.9 9.3 90 1010.3 23.5 SE 36.5 0.0 0.0
03:34 11.0 9.4 90 1010.6 27.3 SE 36.5 0.0 0.0
03:35 11.0 9.4 90 1010.2 33.6 NNW 36.5 0.0 0.0
03:36 11.0 9.4 90 1010.5 30.4 NE 36.5 0.0 0.0
03:37 11.0 9.4 90 1010.4 30.4 SE 36.5 0.0 0.0
03:38 11.0 9.3 89 1010.4 27.3 SE 36.5 0.0 0.0
03:39 11.0 9.3 89 1010.2 28.2 S 36.5 0.0 0.0
03:40 11.0 9.3 89 1010.4 28.9 S 36.5 0.0 0.0
03:41 11.0 9.3 89 1010.4 28.2 S 36.5 0.0 0.0
03:42 11.0 9.3 89 1010.3 27.3 S 36.5 0.0 0.0
03:43 11.0 9.3 89 1010.4 28.9 S 33.6 0.0 0.0
03:44 11.0 9.3 89 1010.2 32.7 S 33.6 0.0 0.0
03:45 11.0 9.1 88 1010.3 25.9 S 33.6 0.0 0.0
03:46 11.0 9.1 88 1010.3 31.1 SE 33.6 0.0 0.0
03:47 11.0 9.1 88 1010.3 27.3 E 33.6 0.0 0.0
03:48 11.0 9.1 88 1010.5 28.2 SE 33.6 0.0 0.0
03:50 11.0 9.1 88 1010.4 29.8 S 38.0 0.0 0.0
03:51 11.0 9.1 88 1010.2 29.8 S 38.0 0.0 0.0
03:52 11.0 9.1 88 1010.2 31.1 S 38.0 0.0 0.0
03:53 11.0 9.1 88 1010.2 25.1 SE 38.0 0.0 0.0
03:54 11.0 9.1 88 1010.4 23.5 SE 38.0 0.0 0.0
03:55 11.0 9.1 88 1010.3 25.9 SE 38.0 0.0 0.0
03:56 11.0 8.9 87 1010.2 32.0 S 38.0 0.0 0.0
03:57 11.0 8.9 87 1010.5 34.2 SE 38.0 0.0 0.0
03:58 11.0 8.9 87 1010.3 38.0 SE 38.0 0.0 0.0
03:59 11.1 9.0 87 1010.4 25.9 S 38.0 0.0 0.0
04:00 11.1 9.0 87 1010.3 22.8 S 38.0 0.0 0.0
04:01 11.1 9.0 87 1010.4 22.8 S 38.0 0.0 0.0
04:02 11.0 8.9 87 1010.5 25.9 SW 38.0 0.0 0.0
04:03 11.1 9.0 87 1010.5 31.1 SE 38.0 0.0 0.0
04:04 11.1 9.0 87 1010.2 34.2 SE 38.0 0.0 0.0
04:05 11.1 9.0 87 1010.5 20.6 WNW 38.0 0.0 0.0
04:06 11.1 9.0 87 1010.3 23.5 SE 38.0 0.0 0.0
04:08 11.1 9.0 87 1010.3 21.3 SE 38.0 0.0 0.0
04:09 11.1 9.0 87 1010.5 36.5 S 36.5 0.0 0.0
04:10 11.1 8.8 86 1010.3 28.9 S 36.5 0.0 0.0
04:11 11.1 8.8 86 1010.5 22.1 SE 36.5 0.0 0.0
04:13 11.1 8.8 86 1010.3 27.3 SE 36.5 0.0 0.0
04:14 11.1 8.8 86 1010.4 28.9 S 36.5 0.0 0.0
04:15 11.1 8.8 86 1010.6 34.2 WNW 36.5 0.0 0.0
04:16 11.1 8.8 86 1010.2 34.9 SE 36.5 0.0 0.0
04:17 11.1 8.8 86 1010.3 27.3 SE 36.5 0.0 0.0
04:18 11.1 8.7 85 1010.5 28.9 S 36.5 0.0 0.0
04:19 11.1 8.7 85 1010.6 28.9 SE 36.5 0.0 0.0
04:20 11.1 8.7 85 1010.1 38.7 SE 38.7 0.0 0.0
04:21 11.1 8.7 85 1010.5 31.1 S 38.7 0.0 0.0
04:22 11.2 8.8 85 1010.3 25.1 S 38.7 0.0 0.0
04:23 11.2 8.8 85 1010.3 32.0 S 38.7 0.0 0.0
04:24 11.2 8.8 85 1010.3 32.0 S 38.7 0.0 0.0
04:25 11.2 8.8 85 1010.5 26.6 S 38.7 0.0 0.0
04:26 11.2 8.8 85 1010.4 28.9 S 38.7 0.0 0.0
04:27 11.2 8.6 84 1010.2 28.2 SE 38.7 0.0 0.0
04:28 11.2 8.8 85 1010.2 25.1 SE 38.7 0.0 0.0
04:29 11.2 8.6 84 1010.4 28.2 SE 38.7 0.0 0.0
04:30 11.2 8.6 84 1010.2 25.9 S 33.6 0.0 0.0
04:32 11.2 8.6 84 1010.3 27.3 S 33.6 0.0 0.0
04:33 11.2 8.6 84 1010.3 22.8 SE 33.6 0.0 0.0
04:34 11.2 8.6 84 1010.2 32.0 SE 33.6 0.0 0.0
04:35 11.2 8.6 84 1010.2 25.9 S 33.6 0.0 0.0
04:36 11.2 8.6 84 1010.2 31.1 S 33.6 0.0 0.0
04:37 11.2 8.6 84 1010.2 33.6 SE 33.6 0.0 0.0
04:38 11.2 8.6 84 1010.2 27.3 S 33.6 0.0 0.0
04:39 11.2 8.6 84 1010.2 28.9 S 33.6 0.0 0.0
04:40 11.2 8.6 84 1010.4 32.7 SE 33.6 0.0 0.0
04:41 11.2 8.6 84 1010.4 30.4 S 33.6 0.0 0.0
04:42 11.1 8.5 84 1010.3 33.6 SE 33.6 0.0 0.0
04:43 11.2 8.6 84 1010.2 25.1 S 33.6 0.0 0.0
04:44 11.2 8.6 84 1010.6 24.4 S 33.6 0.0 0.0
04:45 11.2 8.6 84 1010.3 26.6 SE 33.6 0.0 0.0
04:46 11.1 8.5 84 1010.3 24.4 S 33.6 0.0 0.0
04:47 11.2 8.6 84 1010.3 25.9 NNW 33.6 0.0 0.0
04:48 11.1 8.5 84 1010.6 36.5 SE 36.5 0.0 0.0
04:49 11.1 8.5 84 1010.6 32.7 S 36.5 0.0 0.0
04:50 11.1 8.5 84 1010.5 32.0 S 36.5 0.0 0.0
04:52 11.2 8.6 84 1010.6 34.2 S 36.5 0.0 0.0
04:53 11.1 8.5 84 1010.2 26.6 S 36.5 0.0 0.0
04:54 11.1 8.5 84 1010.6 24.4 SW 37.4 0.0 0.0
04:55 11.1 8.5 84 1010.3 29.8 S 37.4 0.0 0.0
04:56 11.1 8.5 84 1010.5 19.7 S 37.4 0.0 0.0
04:57 11.1 8.5 84 1010.6 22.8 S 37.4 0.0 0.0
04:58 11.2 8.6 84 1010.6 27.3 SE 37.4 0.0 0.0
04:59 11.1 8.5 84 1010.3 25.9 SE 37.4 0.0 0.0
05:00 11.1 8.5 84 1010.7 32.0 SE 37.4 0.0 0.0
05:01 11.1 8.5 84 1010.4 32.0 SE 37.4 0.0 0.0
05:02 11.1 8.5 84 1010.3 33.6 SE 37.4 0.0 0.0
05:03 11.1 8.7 85 1010.5 30.4 SE 33.6 0.0 0.0
05:04 11.1 8.5 84 1010.6 28.9 S 33.6 0.0 0.0
05:05 11.1 8.7 85 1010.3 24.4 S 33.6 0.0 0.0
05:06 11.1 8.7 85 1010.3 24.4 SE 33.6 0.0 0.0
05:07 11.1 8.7 85 1010.6 20.6 SE 33.6 0.0 0.0
05:08 11.1 8.7 85 1010.6 27.3 S 33.6 0.0 0.0
05:09 11.1 8.7 85 1010.6 38.0 S 38.0 0.0 0.0
05:11 11.1 8.8 86 1010.6 24.4 SE 38.0 0.0 0.0
05:12 11.0 8.8 86 1010.3 24.4 SE 38.0 0.0 0.0
05:13 11.0 8.8 86 1010.5 28.9 NNE 38.0 0.0 0.0
05:14 10.9 8.8 87 1010.6 32.0 S 38.0 0.0 0.0
05:15 10.9 8.8 87 1010.5 26.6 N 38.0 0.0 0.0
05:16 10.9 9.0 88 1010.5 33.6 SE 38.0 0.0 0.0
05:17 10.8 8.9 88 1010.6 34.9 SE 38.0 0.0 0.0
05:18 10.8 8.9 88 1010.4 26.6 S 38.0 0.0 0.0
05:19 10.7 9.0 89 1010.5 22.8 S 38.0 0.0 0.0
05:20 10.7 9.0 89 1010.2 32.7 N 34.9 0.8 0.1
05:21 10.6 9.0 90 1010.2 38.0 S 38.0 0.8 0.1
05:22 10.6 9.0 90 1010.4 30.4 S 38.0 0.8 0.1
05:23 10.6 9.0 90 1010.4 19.0 S 38.0 0.8 0.1
05:24 10.5 8.9 90 1010.2 28.9 S 38.0 0.8 0.1
05:25 10.5 9.1 91 1010.3 23.5 SE 38.0 0.0 0.1
05:26 10.5 9.1 91 1010.4 22.1 E 38.0 0.0 0.1
05:27 10.4 9.0 91 1010.2 28.9 S 38.0 0.0 0.1
05:28 10.4 9.2 92 1010.2 32.0 S 38.0 0.0 0.1
05:29 10.4 9.2 92 1010.3 28.9 SE 38.0 0.0 0.1
05:31 10.4 9.2 92 1010.3 30.4 S 38.0 0.0 0.1
05:32 10.4 9.2 92 1010.5 22.8 S 32.0 0.0 0.1
05:33 10.3 9.2 93 1010.5 28.2 SE 32.0 0.0 0.1
05:34 10.4 9.3 93 1010.3 34.2 S 34.2 0.0 0.1
05:35 10.3 9.2 93 1010.6 30.4 S 34.2 0.0 0.1
05:36 10.4 9.3 93 1010.5 25.9 WSW 34.2 0.0 0.1
05:37 10.3 9.4 94 1010.6 33.6 S 34.2 0.0 0.1
05:38 10.3 9.4 94 1010.4 29.8 S 34.2 0.0 0.1
05:39 10.3 9.4 94 1010.5 25.1 S 34.2 0.0 0.1
05:40 10.3 9.4 94 1010.4 31.1 SE 34.2 0.0 0.1
05:41 10.3 9.4 94 1010.4 22.1 SE 34.2 0.0 0.1
05:42 10.3 9.4 94 1010.4 23.5 S 34.2 0.0 0.1
05:43 10.3 9.4 94 1010.6 33.6 S 34.2 0.0 0.1
05:44 10.3 9.5 95 1010.4 24.4 S 33.6 0.0 0.1
05:45 10.3 9.5 95 1010.4 22.8 S 33.6 0.0 0.1
05:46 10.3 9.5 95 1010.4 22.8 S 33.6 0.0 0.1
05:47 10.3 9.5 95 1010.4 25.1 SE 33.6 0.0 0.1
05:48 10.3 9.5 95 1010.5 24.4 S 33.6 0.0 0.1
05:50 10.3 9.7 96 1010.4 28.9 SE 33.6 0.8 0.1
05:51 10.3 9.7 96 1010.7 26.6 SE 33.6 0.8 0.1
05:52 10.3 9.7 96 1010.5 27.3 S 33.6 0.8 0.1
05:53 10.3 9.7 96 1010.6 29.8 SE 33.6 0.8 0.1
05:54 10.3 9.7 96 1010.3 30.4 SE 33.6 0.8 0.1
05:55 10.3 9.7 96 1010.2 28.9 S 33.6 0.0 0.1
05:56 10.3 9.7 96 1010.3 28.2 WSW 33.6 0.0 0.1
05:57 10.3 9.7 96 1010.3 23.5 WSW 33.6 0.0 0.1
05:58 10.3 9.8 97 1010.6 23.5 SE 33.6 0.0 0.1
05:59 10.3 9.8 97 1010.7 26.6 SE 33.6 0.0 0.1
06:00 10.3 9.8 97 1010.6 30.4 S 33.6 0.0 0.1
06:01 10.3 9.8 97 1010.4 30.4 S 33.6 0.0 0.1
06:02 10.3 9.8 97 1010.3 25.1 S 33.6 0.0 0.1
06:03 10.3 9.8 97 1010.6 28.9 S 33.6 0.0 0.1
06:04 10.3 9.8 97 1010.2 22.1 S 30.4 0.0 0.1
06:05 10.3 9.8 97 1010.4 25.1 S 30.4 0.0 0.1
06:06 10.3 9.8 97 1010.5 31.1 S 31.1 0.0 0.1
06:07 10.3 9.8 97 1010.4 28.9 SW 31.1 0.0 0.1
06:08 10.3 9.8 97 1010.5 25.1 S 31.1 0.0 0.1
06:09 10.3 9.8 97 1010.6 32.7 S 32.7 0.0 0.1
06:11 10.3 9.8 97 1010.3 29.8 S 32.7 0.0 0.1
06:12 10.3 9.8 97 1010.5 18.3 SE 33.6 0.0 0.1
06:14 10.4 9.9 97 1010.4 27.3 S 33.6 0.0 0.1
06:15 10.3 9.8 97 1010.5 29.8 SE 33.6 0.0 0.1
06:16 10.4 10.1 98 1010.7 25.1 SE 33.6 0.0 0.1
06:17 10.4 10.1 98 1010.5 30.4 S 33.6 0.0 0.1
06:18 10.4 10.1 98 1010.5 30.4 NW 33.6 0.0 0.1
06:19 10.4 10.1 98 1010.5 24.4 S 33.6 0.0 0.1
06:20 10.4 10.1 98 1010.5 22.1 S 33.6 0.0 0.1
06:21 10.4 10.1 98 1010.6 22.1 S 33.6 0.0 0.1
06:22 10.4 10.1 98 1010.8 25.9 S 31.1 0.0 0.1
06:23 10.4 10.1 98 1010.7 24.4 SE 31.1 0.0 0.1
06:24 10.4 10.1 98 1010.6 34.2 SE 34.2 0.8 0.2
06:25 10.4 10.1 98 1010.6 28.2 W 34.2 0.8 0.2
06:26 10.4 10.1 98 1010.6 24.4 SE 34.2 0.8 0.2
06:27 10.4 10.1 98 1010.6 25.1 WNW 34.2 0.8 0.2
06:28 10.5 10.0 97 1010.6 24.4 SE 34.2 0.8 0.2
06:29 10.5 10.2 98 1010.6 27.3 S 34.2 0.0 0.2
06:30 10.5 10.2 98 1010.6 28.2 NE 41.8 0.0 0.2
06:31 10.5 10.0 97 1010.8 26.6 S 41.8 0.0 0.2
06:32 10.5 10.0 97 1010.8 23.5 S 41.8 0.0 0.2
06:33 10.5 10.0 97 1010.9 20.6 WSW 41.8 0.0 0.2
06:34 10.6 10.1 97 1010.6 20.6 SW 41.8 0.0 0.2
06:35 10.5 10.0 97 1010.7 25.1 S 41.8 0.0 0.2
06:36 10.6 10.1 97 1010.8 24.4 S 41.8 0.0 0.2
06:37 10.6 10.1 97 1010.9 28.9 NNE 41.8 0.0 0.2
06:38 10.6 10.1 97 1010.8 16.8 N 41.8 0.0 0.2
06:39 10.6 10.1 97 1010.7 20.6 WSW 41.8 0.0 0.2
06:40 10.6 10.1 97 1010.8 22.1 S 34.2 0.0 0.2
06:41 10.6 10.1 97 1011.0 25.9 NW 34.2 0.0 0.2
06:42 10.6 10.1 97 1010.8 25.9 SE 34.2 0.0 0.2
06:43 10.6 10.1 97 1010.9 23.5 S 34.2 0.0 0.2
06:44 10.6 10.1 97 1010.8 20.6 S 34.2 0.0 0.2
06:45 10.6 10.1 97 1010.7 27.3 WSW 34.2 0.0 0.2
06:46 10.6 10.1 97 1010.9 20.6 NNE 34.2 0.0 0.2
06:47 10.6 10.1 97 1011.0 18.3 WSW 34.2 0.0 0.2
06:48 10.6 10.1 97 1010.7 17.4 SE 31.1 0.0 0.2
06:49 10.6 10.1 97 1010.9 26.6 S 31.1 0.0 0.2
06:50 10.6 10.1 97 1010.8 25.9 S 31.1 0.0 0.2
06:51 10.6 10.1 97 1010.9 36.5 SE 36.5 0.0 0.2
06:52 10.6 10.1 97 1010.9 25.9 SE 36.5 0.0 0.2
06:53 10.6 10.3 98 1010.9 28.2 SE 36.5 0.0 0.2
06:54 10.6 10.3 98 1010.8 21.3 W 36.5 0.0 0.2
06:55 10.6 10.3 98 1010.9 25.9 S 36.5 0.0 0.2
06:56 10.6 10.3 98 1010.9 29.8 S 36.5 0.8 0.3
06:57 10.6 10.3 98 1010.8 29.8 S 36.5 0.8 0.3
06:58 10.6 10.3 98 1010.8 18.3 SE 36.5 0.8 0.3
06:59 10.6 10.3 98 1011.0 25.9 SE 36.5 0.8 0.3
07:00 10.6 10.3 98 1010.8 23.5 SE 36.5 0.8 0.3
07:01 10.6 10.3 98 1010.9 23.5 SE 36.5 0.0 0.3
07:02 10.6 10.3 98 1010.9 27.3 SE 29.8 0.0 0.3
07:03 10.6 10.3 98 1010.9 27.3 S 29.8 0.0 0.3
07:04 10.6 10.3 98 1010.7 25.1 S 29.8 0.0 0.3
07:05 10.6 10.3 98 1010.9 21.3 S 29.8 0.0 0.3
07:06 10.6 10.3 98 1010.8 25.9 SE 29.8 0.0 0.3
07:07 10.6 10.3 98 1011.0 28.2 SE 29.8 0.0 0.3
07:08 10.6 10.5 99 1011.1 25.9 SE 28.2 0.0 0.3
07:09 10.6 10.5 99 1010.9 24.4 SE 33.6 0.0 0.3
07:10 10.6 10.5 99 1010.9 22.8 SE 33.6 0.0 0.3
07:11 10.6 10.5 99 1010.9 24.4 SE 33.6 0.0 0.3
07:12 10.6 10.5 99 1011.1 31.1 S 33.6 0.0 0.3
07:13 10.6 10.5 99 1011.0 28.2 S 33.6 0.0 0.3
07:14 10.6 10.5 99 1011.2 30.4 S 33.6 0.0 0.3
07:15 10.6 10.5 99 1011.0 29.8 WNW 33.6 0.0 0.3
07:16 10.6 10.5 99 1010.8 23.5 S 33.6 0.8 0.3
07:17 10.7 10.6 99 1010.9 19.7 S 33.6 0.8 0.3
07:18 10.7 10.6 99 1010.9 20.6 S 33.6 0.8 0.3
07:19 10.7 10.6 99 1010.9 23.5 SE 31.1 0.8 0.3
07:20 10.7 10.6 99 1010.9 23.5 SE 31.1 0.8 0.3
07:21 10.6 10.5 99 1011.1 27.3 SE 31.1 0.0 0.3
07:22 10.6 10.5 99 1011.1 24.4 SE 30.4 0.0 0.3
07:23 10.7 10.6 99 1011.0 24.4 S 30.4 0.0 0.3
07:24 10.7 10.6 99 1010.9 31.1 S 31.1 0.0 0.3
07:25 10.7 10.6 99 1011.0 26.6 S 31.1 0.0 0.3
07:26 10.7 10.6 99 1011.1 27.3 SSW 31.1 0.0 0.3
07:27 10.7 10.6 99 1011.0 23.5 S 31.1 0.0 0.3
07:28 10.7 10.6 99 1011.1 24.4 NW 31.1 0.0 0.3
07:29 10.7 10.6 99 1011.1 32.0 SE 32.0 0.0 0.3
07:30 10.8 10.7 99 1011.1 24.4 S 32.0 0.0 0.3
07:31 10.8 10.7 99 1011.1 26.6 S 32.0 0.0 0.3
07:32 10.8 10.7 99 1011.3 32.0 S 32.0 0.0 0.3
07:33 10.8 10.7 99 1011.1 28.9 S 32.0 0.0 0.3
07:34 10.8 10.7 99 1011.2 28.9 S 32.0 0.0 0.3
07:35 10.8 10.7 99 1011.2 19.0 SE 32.0 0.0 0.3
07:36 10.8 10.7 99 1011.2 24.4 WSW 32.0 0.0 0.3
07:37 10.8 10.7 99 1011.0 28.9 S 32.0 0.0 0.3
07:38 10.8 10.7 99 1011.2 28.2 SE 32.0 0.0 0.3
07:39 10.8 10.7 99 1011.2 32.7 S 32.7 0.0 0.3
07:40 10.9 10.8 99 1011.2 25.9 S 32.7 0.0 0.3
07:41 10.9 10.8 99 1011.2 20.6 WNW 32.7 0.0 0.3
07:42 10.9 10.8 99 1011.5 29.8 S 32.7 0.0 0.3
07:43 10.9 10.8 99 1011.2 25.1 SE 32.7 0.0 0.3
07:44 10.9 10.8 99 1011.3 29.8 S 32.7 0.0 0.3
07:45 10.9 10.8 99 1011.2 24.4 W 32.7 0.0 0.3
07:46 10.9 10.8 99 1011.4 23.5 S 32.7 0.0 0.3
07:47 10.9 10.8 99 1011.4 26.6 S 32.7 0.0 0.3
07:48 10.9 10.8 99 1011.2 23.5 SE 32.7 0.0 0.3
07:49 10.9 10.8 99 1011.2 25.9 S 32.7 0.0 0.3
07:50 10.9 10.8 99 1011.3 28.2 S 29.8 0.0 0.3
07:51 10.9 10.8 99 1011.2 19.7 SE 29.8 0.0 0.3
07:52 10.9 10.8 99 1011.5 28.2 S 29.8 0.0 0.3
07:53 10.9 10.8 99 1011.4 25.9 S 29.8 0.0 0.3
07:54 10.9 10.8 99 1011.4 27.3 S 29.8 0.0 0.3
07:55 10.9 10.8 99 1011.4 28.9 S 28.9 0.0 0.3
07:56 10.9 10.8 99 1011.6 31.1 S 31.1 0.0 0.3
07:57 10.9 10.8 99 1011.2 24.4 SE 31.1 0.0 0.3
07:58 10.9 10.8 99 1011.3 27.3 NNW 31.1 0.0 0.3
07:59 10.9 10.8 99 1011.5 27.3 S 31.1 0.0 0.3
08:00 10.9 10.8 99 1011.4 27.3 S 31.1 0.0 0.3
08:01 10.9 10.8 99 1011.4 27.3 S 31.1 0.0 0.3
08:03 10.9 10.8 99 1011.4 30.4 SE 31.1 0.0 0.3
08:04 10.9 10.8 99 1011.5 38.7 SE 38.7 0.0 0.4
08:05 10.9 10.8 99 1011.6 26.6 S 38.7 0.8 0.4
08:07 10.9 10.8 99 1011.4 28.9 SE 38.7 0.8 0.4
08:08 10.9 10.8 99 1011.4 27.3 SE 38.7 0.8 0.4
08:09 10.9 10.8 99 1011.5 21.3 SE 38.7 0.8 0.4
08:10 10.9 10.8 99 1011.6 27.3 WNW 38.7 0.0 0.4
08:12 10.9 10.8 99 1011.8 26.6 SE 38.7 0.0 0.4
08:13 10.9 10.8 99 1011.8 28.2 SE 38.7 0.0 0.4
08:14 10.9 10.8 99 1011.8 26.6 S 38.7 0.0 0.4
08:16 10.9 10.8 99 1011.6 25.9 SE 28.9 0.8 0.4
08:17 10.9 10.8 99 1011.8 24.4 SE 28.9 0.8 0.4
08:18 10.9 10.8 99 1011.7 22.1 S 28.9 0.8 0.4
08:19 10.9 10.8 99 1011.9 28.9 S 28.9 0.8 0.4
08:20 10.9 10.8 99 1011.6 32.7 S 32.7 0.8 0.4
08:21 10.9 10.8 99 1011.8 22.1 SE 32.7 0.0 0.4
08:22 10.9 10.8 99 1011.7 27.3 S 32.7 0.0 0.4
08:23 10.9 10.8 99 1011.8 21.3 S 32.7 0.0 0.4
08:24 10.9 10.8 99 1011.9 27.3 N 32.7 0.0 0.4
08:25 10.9 10.8 99 1011.8 25.9 S 32.7 0.0 0.4
08:26 10.9 10.8 99 1011.9 26.6 S 32.7 0.0 0.4
08:27 10.9 10.8 99 1011.7 24.4 SE 32.7 0.0 0.4
08:28 10.9 10.8 99 1011.8 26.6 SE 32.7 0.0 0.4
08:29 10.9 10.8 99 1011.8 19.7 S 32.7 0.0 0.4
08:30 10.9 10.8 99 1011.8 24.4 S 27.3 0.0 0.4
08:31 10.9 10.8 99 1012.0 28.9 S 28.9 0.0 0.4
08:32 10.9 10.8 99 1011.9 28.2 S 28.9 0.0 0.4
08:33 10.9 10.8 99 1012.0 29.8 S 29.8 0.0 0.4
08:34 10.9 10.8 99 1011.9 30.4 S 30.4 0.0 0.4
08:35 10.9 10.8 99 1011.9 28.2 S 30.4 0.0 0.4
08:36 10.9 10.8 99 1011.8 30.4 SE 30.4 0.0 0.4
08:37 10.9 10.8 99 1011.8 28.9 S 30.4 0.0 0.4
08:38 10.9 10.8 99 1011.9 24.4 S 30.4 0.0 0.4
08:39 10.9 10.8 99 1011.8 28.9 SE 30.4 0.0 0.4
08:40 10.9 10.8 99 1011.9 26.6 S 30.4 0.0 0.4
08:41 10.9 10.8 99 1012.1 19.0 S 30.4 0.0 0.4
08:42 10.9 10.8 99 1011.8 29.8 S 30.4 0.0 0.4
08:43 10.9 10.8 99 1011.8 28.2 SE 30.4 0.0 0.4
08:44 10.9 10.8 99 1011.9 25.1 SE 30.4 0.0 0.4
08:45 10.9 10.8 99 1012.0 25.1 S 30.4 0.0 0.4
08:46 10.9 10.8 99 1012.0 28.9 S 30.4 0.0 0.4
08:47 10.9 10.8 99 1012.1 28.9 S 30.4 0.0 0.4
08:48 10.9 10.8 99 1012.0 32.0 SE 32.0 0.0 0.4
08:49 10.9 10.8 99 1012.0 28.9 S 32.0 0.0 0.4
08:50 10.9 10.8 99 1012.1 22.8 S 32.0 0.0 0.4
08:51 10.9 10.8 99 1012.1 25.1 SE 32.0 0.0 0.4
08:52 10.9 10.8 99 1012.3 24.4 S 32.0 0.0 0.4
08:53 10.9 10.8 99 1012.2 25.1 S 32.0 0.0 0.4
08:54 10.9 10.8 99 1012.1 28.2 S 32.0 0.0 0.4
08:55 10.9 10.8 99 1012.1 25.9 NNW 32.0 0.0 0.4
08:56 10.9 10.8 99 1012.2 26.6 SE 32.0 0.0 0.4
08:57 10.9 10.8 99 1012.2 30.4 S 32.0 0.0 0.5
08:58 10.9 10.8 99 1012.2 25.9 SE 32.0 0.8 0.5
08:59 10.9 10.8 99 1012.1 22.8 S 30.4 0.8 0.5
09:00 10.9 10.8 99 1012.1 22.8 S 30.4 0.8 0.5
09:01 10.9 10.8 99 1012.2 22.8 S 30.4 0.8 0.5
09:02 10.9 10.8 99 1012.3 28.2 S 30.4 0.8 0.5
09:03 10.9 10.8 99 1012.5 31.1 S 31.1 0.0 0.5
09:04 10.9 10.8 99 1012.2 30.4 S 31.1 0.0 0.5
09:05 10.9 10.8 99 1012.4 27.3 SE 31.1 0.0 0.6
09:06 10.9 10.8 99 1012.2 25.1 S 31.1 0.8 0.6
09:07 10.9 10.8 99 1012.5 25.1 S 31.1 0.8 0.6
09:08 10.9 10.8 99 1012.4 25.9 S 31.1 0.8 0.6
09:09 10.9 10.8 99 1012.4 22.8 SE 31.1 0.8 0.6
09:10 10.9 10.8 99 1012.3 28.9 SE 31.1 0.8 0.6
09:11 10.9 10.8 99 1012.3 25.1 S 31.1 0.0 0.6
09:12 10.9 10.8 99 1012.3 22.1 S 31.1 0.0 0.6
09:13 10.9 10.8 99 1012.3 26.6 S 31.1 0.0 0.6
09:14 10.9 10.8 99 1012.3 20.6 SE 30.4 0.8 0.6
09:15 10.9 10.8 99 1012.4 23.5 S 28.9 0.8 0.6
09:16 10.9 10.8 99 1012.4 22.8 S 28.9 0.8 0.6
09:17 10.9 10.8 99 1012.2 26.6 S 28.9 0.8 0.6
09:18 10.9 10.8 99 1012.2 26.6 WNW 28.9 0.8 0.7
09:19 10.9 10.8 99 1012.5 24.4 S 28.9 0.8 0.7
09:20 10.9 10.8 99 1012.3 28.9 S 28.9 0.8 0.7
09:21 10.9 10.8 99 1012.3 24.4 S 28.9 0.8 0.7
09:22 10.9 10.8 99 1012.3 25.9 S 28.9 0.8 0.8
09:24 10.9 10.8 99 1012.3 28.9 SE 28.9 0.8 0.8
09:25 10.9 10.8 99 1012.4 24.4 S 28.9 0.8 0.8
09:26 10.9 10.8 99 1012.2 26.6 S 28.9 0.8 0.8
09:27 10.9 10.8 99 1012.5 18.3 S 28.9 0.8 0.8
09:28 10.9 10.8 99 1012.3 27.3 S 28.9 0.0 0.8
09:29 10.9 10.8 99 1012.5 28.9 S 28.9 0.0 0.8
09:30 10.9 10.8 99 1012.6 28.2 S 28.9 0.8 0.8
09:31 10.9 10.8 99 1012.4 30.4 S 30.4 0.8 0.8
09:32 11.0 10.9 99 1012.3 25.9 S 30.4 0.8 0.8
09:33 11.0 10.9 99 1012.6 30.4 SE 30.4 0.8 0.8
09:35 11.0 10.9 99 1012.5 25.9 S 32.0 0.0 0.8
09:36 11.0 10.9 99 1012.4 28.2 SE 32.0 0.0 0.8
09:37 11.0 10.9 99 1012.4 32.0 SE 32.0 0.0 0.8
09:38 11.0 10.9 99 1012.6 26.6 S 32.0 0.0 0.8
09:39 11.0 10.9 99 1012.5 31.1 S 32.0 0.0 0.8
09:40 10.9 10.8 99 1012.6 29.8 S 32.0 0.0 0.8
09:41 10.9 10.8 99 1012.5 28.9 SE 32.0 0.0 0.8
09:42 11.0 10.9 99 1012.6 24.4 NNE 32.0 0.0 0.8
09:43 11.0 10.9 99 1012.7 22.1 S 32.0 0.0 0.8
09:44 11.0 10.9 99 1012.5 24.4 S 32.0 0.0 0.8
09:45 11.0 10.9 99 1012.6 28.2 S 32.0 0.0 0.8
09:46 11.1 11.0 99 1012.6 22.8 S 32.0 0.0 0.8
09:47 11.1 11.0 99 1012.4 23.5 S 32.0 0.0 0.8
09:48 11.1 11.0 99 1012.4 27.3 S 31.1 0.0 0.8
09:49 11.1 11.0 99 1012.6 23.5 S 29.8 0.0 0.8
09:50 11.1 11.0 99 1012.6 30.4 S 30.4 0.0 0.8
09:51 11.2 11.1 99 1012.4 21.3 SE 30.4 0.0 0.8
09:52 11.1 11.0 99 1012.7 29.8 NW 30.4 0.0 0.8
09:53 11.1 11.0 99 1012.6 25.1 S 30.4 0.0 0.8
09:54 11.1 11.0 99 1012.7 29.8 S 30.4 0.0 0.8
09:55 11.1 11.0 99 1012.8 27.3 W 30.4 0.0 0.8
09:56 11.1 11.0 99 1012.8 24.4 S 30.4 0.0 0.8
09:57 11.1 11.0 99 1012.7 28.2 S 30.4 0.0 0.8
09:58 11.1 11.0 99 1012.8 22.1 S 30.4 0.0 0.8
09:59 11.1 11.0 99 1012.7 25.1 SE 30.4 0.0 0.8
10:00 11.1 11.0 99 1012.8 29.8 NNW 30.4 0.0 0.8
10:01 11.1 11.0 99 1012.9 29.8 NNW 29.8 0.0 0.8
10:02 11.1 11.0 99 1012.8 32.7 NNW 32.7 0.8 0.9
10:03 11.1 11.0 99 1012.9 24.4 SE 32.7 0.8 0.9
10:04 11.1 11.0 99 1012.9 27.3 S 32.7 0.8 0.9
10:05 11.1 11.0 99 1012.8 32.0 S 32.7 0.8 0.9
10:06 11.1 11.0 99 1012.7 28.9 SE 32.7 0.8 0.9
10:07 11.1 11.0 99 1012.9 27.3 S 32.7 0.0 0.9
10:08 11.1 11.0 99 1012.9 19.0 S 32.7 0.0 0.9
10:09 11.1 11.0 99 1012.8 28.2 S 33.6 0.0 0.9
10:11 11.1 11.0 99 1012.8 22.1 S 33.6 0.0 0.9
10:12 11.1 11.0 99 1012.9 32.0 SE 33.6 0.0 0.9
10:14 11.1 11.0 99 1012.9 27.3 S 33.6 0.0 0.9
10:15 11.1 11.0 99 1013.0 23.5 S 33.6 0.0 0.9
10:16 11.1 11.0 99 1013.0 19.7 S 33.6 0.0 0.9
10:17 11.1 11.0 99 1013.1 22.8 S 33.6 0.0 0.9
10:18 11.1 11.0 99 1012.9 22.8 SE 33.6 0.0 0.9
10:19 11.1 11.0 99 1013.1 24.4 S 33.6 0.0 0.9
10:20 11.1 11.0 99 1013.0 25.9 S 33.6 0.0 0.9
10:21 11.1 11.0 99 1013.0 30.4 SE 33.6 0.0 0.9
10:22 11.1 11.0 99 1012.9 28.9 S 33.6 0.0 0.9
10:23 11.1 11.0 99 1013.0 22.1 S 33.6 0.0 0.9
10:24 11.1 11.0 99 1013.1 32.0 S 33.6 0.0 0.9
10:25 11.1 11.0 99 1013.2 25.9 S 33.6 0.0 0.9
10:26 11.1 11.0 99 1012.9 26.6 S 33.6 0.0 0.9
10:27 11.1 11.0 99 1013.0 20.6 S 33.6 0.0 0.9
10:28 11.1 11.0 99 1013.0 28.2 WSW 33.6 0.0 0.9
10:29 11.1 11.0 99 1012.9 28.9 S 33.6 0.0 0.9
10:30 11.1 11.0 99 1013.0 25.9 S 33.6 0.0 0.9
10:31 11.2 11.1 99 1013.1 24.4 S 33.6 0.0 0.9
10:32 11.1 11.0 99 1013.0 23.5 SE 33.6 0.0 0.9
10:33 11.1 11.0 99 1013.0 30.4 SE 33.6 0.0 0.9
10:34 11.2 11.1 99 1013.0 25.9 NNE 33.6 0.0 0.9
10:35 11.2 11.1 99 1013.1 17.4 S 33.6 0.0 0.9
10:36 11.2 11.1 99 1013.2 26.6 SE 30.4 0.0 0.9
10:37 11.1 11.0 99 1013.1 22.1 S 30.4 0.0 0.9
10:38 11.1 11.0 99 1013.1 23.5 S 30.4 0.0 0.9
10:39 11.1 11.0 99 1013.1 27.3 SE 30.4 0.0 0.9
10:40 11.1 11.0 99 1013.2 22.1 SE 30.4 0.0 0.9
10:41 11.2 11.1 99 1013.2 20.6 S 30.4 0.0 0.9
10:42 11.2 11.1 99 1013.4 24.4 S 30.4 0.0 0.9
10:43 11.2 11.1 99 1013.2 29.8 S 30.4 0.0 0.9
10:44 11.2 11.1 99 1013.2 26.6 SE 30.4 0.0 0.9
10:45 11.2 11.1 99 1013.2 25.9 NE 30.4 0.0 0.9
10:46 11.2 11.1 99 1013.2 21.3 SE 30.4 0.0 0.9
10:48 11.2 11.1 99 1013.3 22.8 S 30.4 0.0 0.9
10:49 11.2 11.1 99 1013.4 19.7 NNE 29.8 0.0 0.9
10:50 11.2 11.1 99 1013.4 32.7 SE 32.7 0.0 0.9
10:51 11.2 11.1 99 1013.4 25.9 SE 32.7 0.0 0.9
10:52 11.2 11.1 99 1013.3 23.5 S 32.7 0.0 0.9
10:53 11.2 11.1 99 1013.3 23.5 S 32.7 0.0 0.9
10:54 11.2 11.1 99 1013.1 28.2 S 32.7 0.0 0.9
10:55 11.2 11.1 99 1013.4 25.9 NNW 32.7 0.0 0.9
10:56 11.2 11.1 99 1013.3 28.9 S 32.7 0.0 0.9
10:57 11.2 11.1 99 1013.4 20.6 S 32.7 0.0 0.9
10:58 11.2 11.1 99 1013.3 24.4 SE 32.7 0.0 0.9
10:59 11.2 11.1 99 1013.4 30.4 S 32.7 0.0 0.9
11:00 11.2 11.1 99 1013.4 28.2 S 32.7 0.0 0.9
11:01 11.2 11.1 99 1013.4 28.2 S 32.7 0.0 0.9
11:02 11.2 11.1 99 1013.5 25.1 S 32.7 0.0 0.9
11:03 11.2 11.1 99 1013.3 26.6 S 32.7 0.0 0.9
11:04 11.2 11.1 99 1013.3 23.5 S 32.7 0.0 0.9
11:05 11.3 11.2 99 1013.4 28.9 S 32.7 0.0 0.9
11:06 11.3 11.2 99 1013.2 26.6 S 30.4 0.0 0.9
11:07 11.3 11.2 99 1013.2 22.1 S 30.4 0.0 0.9
11:08 11.3 11.2 99 1013.4 25.1 E 30.4 0.0 0.9
11:09 11.3 11.2 99 1013.4 33.6 WSW 33.6 0.0 0.9
11:10 11.3 11.2 99 1013.4 25.1 SSW 33.6 0.0 0.9
11:11 11.3 11.2 99 1013.5 19.7 S 33.6 0.0 0.9
11:12 11.3 11.2 99 1013.3 28.9 SW 33.6 0.0 0.9
11:13 11.3 11.2 99 1013.3 28.9 SW 33.6 0.0 0.9
11:14 11.3 11.2 99 1013.4 28.2 S 33.6 0.0 0.9
11:15 11.3 11.2 99 1013.4 25.1 S 33.6 0.0 0.9
11:16 11.4 11.3 99 1013.3 22.8 SE 33.6 0.0 0.9
11:17 11.4 11.3 99 1013.3 32.0 SE 33.6 0.0 0.9
11:18 11.4 11.3 99 1013.4 29.8 S 33.6 0.0 0.9
11:19 11.4 11.3 99 1013.7 15.9 E 32.7 0.0 0.9
11:20 11.3 11.2 99 1013.5 31.1 SE 32.7 0.0 0.9
11:21 11.4 11.3 99 1013.5 24.4 S 32.7 0.0 0.9
11:22 11.4 11.3 99 1013.6 33.6 NNE 33.6 0.0 0.9
11:23 11.4 11.3 99 1013.5 25.9 S 33.6 0.0 0.9
11:24 11.4 11.3 99 1013.6 22.1 SE 33.6 0.0 0.9
11:25 11.4 11.3 99 1013.6 22.8 SE 33.6 0.0 0.9
11:26 11.4 11.3 99 1013.5 25.1 S 33.6 0.0 0.9
11:27 11.4 11.3 99 1013.7 22.1 SE 33.6 0.0 0.9
11:28 11.4 11.3 99 1013.6 22.1 S 33.6 0.0 0.9
11:29 11.4 11.3 99 1013.8 26.6 S 33.6 0.0 0.9
11:30 11.5 11.4 99 1013.6 32.0 S 33.6 0.0 0.9
11:31 11.5 11.4 99 1013.7 28.2 S 33.6 0.0 0.9
11:32 11.5 11.4 99 1013.7 29.8 SE 33.6 0.0 0.9
11:33 11.5 11.4 99 1013.8 19.7 NW 32.0 0.0 0.9
11:34 11.5 11.4 99 1013.7 26.6 S 33.6 0.0 0.9
11:35 11.5 11.4 99 1013.5 29.8 NW 33.6 0.0 0.9
11:36 11.5 11.4 99 1013.7 27.3 E 33.6 0.0 0.9
11:37 11.5 11.4 99 1014.0 24.4 S 33.6 0.0 0.9
11:38 11.5 11.4 99 1013.8 26.6 SE 33.6 0.0 0.9
11:39 11.5 11.4 99 1013.8 34.9 SE 34.9 0.0 0.9
11:40 11.5 11.4 99 1013.8 26.6 SE 34.9 0.0 0.9
11:41 11.5 11.4 99 1013.8 23.5 S 34.9 0.0 0.9
11:42 11.5 11.4 99 1013.9 21.3 SE 34.9 0.0 0.9
11:43 11.5 11.4 99 1013.9 28.2 S 34.9 0.0 0.9
11:44 11.5 11.4 99 1014.0 21.3 S 34.9 0.0 0.9
11:45 11.5 11.4 99 1014.0 27.3 N 34.9 0.0 0.9
11:47 11.5 11.4 99 1013.8 31.1 S 34.9 0.0 0.9
11:48 11.5 11.4 99 1013.9 30.4 S 34.9 0.0 0.9
11:49 11.5 11.4 99 1014.2 29.8 S 34.9 0.0 0.9
11:50 11.5 11.4 99 1014.3 27.3 SE 31.1 0.0 0.9
11:51 11.5 11.4 99 1013.9 27.3 SW 31.1 0.0 0.9
11:52 11.5 11.4 99 1014.1 25.9 S 31.1 0.0 0.9
11:53 11.5 11.4 99 1014.1 25.9 S 31.1 0.0 0.9
11:54 11.5 11.4 99 1014.0 21.3 NNE 31.1 0.0 0.9
11:55 11.5 11.4 99 1014.0 28.2 WSW 31.1 0.0 0.9
11:56 11.5 11.4 99 1014.2 26.6 S 31.1 0.0 0.9
11:57 11.5 11.4 99 1014.2 32.0 S 32.0 0.0 0.9
11:58 11.6 11.5 99 1014.2 22.8 SE 32.0 0.0 0.9
11:59 11.6 11.5 99 1014.0 36.5 S 36.5 0.0 0.9
12:00 11.6 11.5 99 1014.1 21.3 NNE 36.5 0.0 0.9
12:01 11.6 11.5 99 1014.2 21.3 NNE 36.5 0.0 0.9
12:02 11.6 11.5 99 1014.3 29.8 S 36.5 0.0 0.9
12:03 11.6 11.5 99 1014.1 29.8 S 36.5 0.0 0.9
12:04 11.6 11.5 99 1014.3 28.9 S 36.5 0.0 0.9
12:05 11.6 11.5 99 1014.0 28.9 WSW 36.5 0.0 0.9
12:06 11.6 11.5 99 1014.1 26.6 SE 36.5 0.8 0.9
12:07 11.6 11.5 99 1014.4 30.4 S 36.5 0.8 0.9
12:08 11.6 11.5 99 1014.1 23.5 S 36.5 0.8 0.9
12:10 11.6 11.5 99 1014.2 23.5 S 30.4 0.8 0.9
12:11 11.6 11.5 99 1014.2 23.5 S 30.4 0.8 1.0
12:12 11.6 11.5 99 1014.1 36.5 S 36.5 0.8 1.0
12:14 11.6 11.5 99 1014.5 22.8 S 36.5 0.8 1.0
12:15 11.6 11.5 99 1014.2 25.9 S 36.5 0.8 1.0
12:17 11.6 11.5 99 1014.1 25.9 SE 36.5 0.0 1.0
12:18 11.6 11.5 99 1014.3 23.5 S 36.5 0.8 1.1
12:19 11.6 11.5 99 1014.3 21.3 SE 36.5 0.8 1.1
12:20 11.7 11.6 99 1014.3 23.5 S 36.5 0.8 1.1
12:21 11.6 11.5 99 1014.2 19.7 S 36.5 0.8 1.1
12:22 11.7 11.6 99 1014.3 19.7 SE 36.5 0.8 1.1
12:23 11.7 11.6 99 1014.2 22.1 S 27.3 0.0 1.1
12:24 11.7 11.6 99 1014.4 24.4 SE 27.3 0.0 1.1
12:25 11.7 11.6 99 1014.4 23.5 SE 26.6 0.0 1.1
12:26 11.7 11.6 99 1014.6 22.8 S 26.6 0.0 1.1
12:27 11.7 11.6 99 1014.3 26.6 S 26.6 0.0 1.1
12:28 11.6 11.5 99 1014.2 27.3 S 27.3 0.0 1.1
12:29 11.7 11.6 99 1014.3 22.8 S 27.3 0.0 1.1
12:30 11.7 11.6 99 1014.4 23.5 S 27.3 0.8 1.1
12:31 11.7 11.6 99 1014.5 25.9 S 27.3 0.8 1.1
12:32 11.7 11.6 99 1014.4 31.1 SE 31.1 0.8 1.1
12:33 11.6 11.5 99 1014.5 23.5 SE 31.1 0.8 1.1
12:34 11.7 11.6 99 1014.4 26.6 SE 31.1 0.8 1.1
12:35 11.7 11.6 99 1014.4 26.6 SE 31.1 0.0 1.1
12:36 11.6 11.5 99 1014.4 22.1 S 31.1 0.0 1.1
12:37 11.6 11.5 99 1014.7 24.4 N 31.1 0.0 1.1
12:38 11.6 11.5 99 1014.6 21.3 NE 31.1 0.0 1.1
12:39 11.6 11.5 99 1014.6 25.9 S 31.1 0.0 1.1
12:40 11.6 11.5 99 1014.6 22.8 SW 31.1 0.0 1.2
12:41 11.7 11.6 99 1014.6 13.6 S 31.1 0.8 1.2
12:42 11.6 11.5 99 1014.5 20.6 S 26.6 0.8 1.2
12:43 11.6 11.5 99 1014.7 22.1 S 26.6 0.8 1.2
12:44 11.6 11.5 99 1014.6 28.2 S 28.2 0.8 1.2
12:45 11.6 11.5 99 1014.6 21.3 SE 28.2 0.8 1.2
12:46 11.6 11.5 99 1014.7 21.3 S 28.2 0.0 1.2
12:47 11.6 11.5 99 1014.6 20.6 S 28.2 0.0 1.2
12:48 11.6 11.5 99 1014.9 18.3 S 28.2 0.0 1.2
12:49 11.6 11.5 99 1014.7 26.6 S 28.2 0.0 1.2
12:50 11.6 11.5 99 1014.6 22.8 SE 28.2 0.0 1.2
12:51 11.6 11.5 99 1015.1 24.4 S 28.2 0.0 1.2
12:52 11.6 11.5 99 1014.6 23.5 S 28.2 0.0 1.2
12:53 11.6 11.5 99 1014.6 21.3 S 28.2 0.0 1.2
12:54 11.6 11.5 99 1014.8 19.0 S 26.6 0.0 1.2
12:55 11.6 11.5 99 1014.9 23.5 S 26.6 0.0 1.2
12:56 11.6 11.5 99 1014.8 25.1 S 26.6 0.0 1.2
12:57 11.6 11.5 99 1014.9 22.1 S 26.6 0.0 1.2
12:58 11.6 11.5 99 1015.0 27.3 S 27.3 0.0 1.2
12:59 11.6 11.5 99 1014.7 22.8 S 27.3 0.0 1.2
13:01 11.6 11.5 99 1015.0 22.8 S 27.3 0.0 1.2
13:02 11.6 11.5 99 1014.8 24.4 S 27.3 0.8 1.3
13:03 11.6 11.5 99 1014.9 23.5 SE 27.3 0.8 1.3
13:04 11.6 11.5 99 1014.7 22.8 SE 27.3 0.8 1.3
13:05 11.6 11.5 99 1015.1 21.3 SE 27.3 0.8 1.3
13:06 11.5 11.4 99 1014.8 23.5 S 27.3 0.8 1.3
13:07 11.6 11.5 99 1014.7 21.3 S 27.3 0.0 1.3
13:08 11.6 11.5 99 1014.9 23.5 S 27.3 0.0 1.3
13:09 11.5 11.4 99 1015.0 22.1 S 24.4 0.0 1.3
13:10 11.5 11.4 99 1014.9 25.1 S 25.1 0.0 1.3
13:11 11.5 11.4 99 1014.9 19.7 SE 25.1 0.0 1.3
13:12 11.5 11.4 99 1014.9 28.9 S 28.9 0.0 1.3
13:13 11.5 11.4 99 1014.8 25.1 S 28.9 0.0 1.3
13:14 11.6 11.5 99 1015.0 19.7 SE 28.9 0.0 1.3
13:15 11.5 11.4 99 1015.0 17.4 S 28.9 0.0 1.3
13:16 11.5 11.4 99 1015.0 23.5 SE 28.9 0.0 1.3
13:17 11.6 11.5 99 1015.0 19.0 NW 28.9 0.0 1.3
13:18 11.5 11.4 99 1015.0 19.7 S 28.9 0.0 1.3
13:19 11.5 11.4 99 1015.1 20.6 S 28.9 0.8 1.3
13:20 11.5 11.4 99 1014.9 22.8 S 28.9 0.8 1.3
13:21 11.5 11.4 99 1015.0 19.7 S 28.9 0.8 1.3
13:22 11.6 11.5 99 1015.0 22.1 S 28.9 0.8 1.3
13:23 11.5 11.4 99 1015.0 22.8 S 25.1 0.8 1.3
13:24 11.6 11.5 99 1015.1 17.4 S 23.5 0.0 1.3
13:25 11.6 11.5 99 1015.1 27.3 NNW 27.3 0.0 1.3
13:26 11.5 11.4 99 1015.1 23.5 S 27.3 0.0 1.3
13:27 11.6 11.5 99 1015.1 22.8 SE 27.3 0.0 1.3
13:28 11.6 11.5 99 1015.1 22.8 SE 27.3 0.0 1.3
13:29 11.5 11.4 99 1015.2 22.8 S 27.3 0.0 1.3
13:30 11.6 11.5 99 1015.2 24.4 S 27.3 0.0 1.3
13:31 11.6 11.5 99 1015.0 22.1 WSW 27.3 0.0 1.3
13:32 11.5 11.4 99 1015.2 27.3 SE 27.3 0.0 1.3
13:33 11.6 11.5 99 1015.2 25.9 S 27.3 0.0 1.3
13:34 11.6 11.5 99 1015.1 24.4 S 27.3 0.0 1.3
13:35 11.6 11.5 99 1015.2 20.6 WSW 27.3 0.0 1.3
13:36 11.6 11.5 99 1015.1 23.5 S 27.3 0.0 1.3
13:37 11.6 11.5 99 1015.2 16.8 S 27.3 0.0 1.3
13:38 11.6 11.5 99 1015.2 25.1 WNW 27.3 0.0 1.3
13:39 11.6 11.5 99 1015.3 22.8 S 27.3 0.0 1.3
13:40 11.6 11.5 99 1015.1 22.8 S 27.3 0.0 1.3
13:41 11.6 11.5 99 1015.1 28.2 S 28.2 0.0 1.3
13:42 11.6 11.5 99 1015.2 29.8 SE 29.8 0.0 1.3
13:43 11.6 11.5 99 1015.2 19.0 S 29.8 0.0 1.3
13:44 11.6 11.5 99 1015.3 25.1 S 29.8 0.0 1.3
13:45 11.6 11.5 99 1015.2 18.3 S 29.8 0.0 1.3
13:46 11.6 11.5 99 1015.1 19.7 SE 29.8 0.0 1.3
13:47 11.6 11.5 99 1015.2 22.1 S 29.8 0.0 1.3
13:48 11.6 11.5 99 1015.0 27.3 SE 29.8 0.0 1.4
13:49 11.6 11.5 99 1015.4 23.5 S 29.8 0.8 1.4
13:50 11.6 11.5 99 1015.2 20.6 SE 29.8 0.8 1.4
13:51 11.6 11.5 99 1015.3 22.8 S 29.8 0.8 1.4
13:52 11.6 11.5 99 1015.3 22.8 S 29.8 0.8 1.4
13:53 11.6 11.5 99 1015.2 24.4 S 27.3 0.8 1.4
13:54 11.6 11.5 99 1015.4 23.5 SE 27.3 0.0 1.4
13:55 11.6 11.5 99 1015.2 25.9 S 27.3 0.0 1.4
13:56 11.6 11.5 99 1015.4 19.7 S 27.3 0.0 1.4
13:57 11.6 11.5 99 1015.4 21.3 S 27.3 0.0 1.4
13:59 11.6 11.5 99 1015.3 19.0 S 25.9 0.0 1.4
14:00 11.6 11.5 99 1015.4 18.3 W 25.9 0.0 1.4
14:01 11.6 11.5 99 1015.4 18.3 W 25.9 0.0 1.4
14:02 11.6 11.5 99 1015.4 18.3 SE 25.9 0.0 1.4
14:03 11.6 11.5 99 1015.5 23.5 S 25.9 0.0 1.4
14:04 11.6 11.5 99 1015.5 28.2 S 28.2 0.0 1.4
14:05 11.6 11.5 99 1015.5 25.1 S 28.2 0.0 1.4
14:06 11.6 11.5 99 1015.6 19.7 S 28.2 0.0 1.4
14:07 11.6 11.5 99 1015.6 18.3 NW 28.2 0.0 1.4
14:08 11.5 11.4 99 1015.5 20.6 S 28.2 0.8 1.4
14:09 11.5 11.4 99 1015.5 22.8 S 28.2 0.8 1.4
14:10 11.6 11.5 99 1015.7 27.3 S 28.2 0.8 1.4
14:12 11.6 11.5 99 1015.6 18.3 S 28.2 0.8 1.4
14:14 11.5 11.4 99 1015.7 22.8 S 28.2 0.0 1.4
14:15 11.5 11.4 99 1015.8 22.1 S 27.3 0.0 1.4
14:16 11.5 11.4 99 1015.7 20.6 S 27.3 0.0 1.4
14:18 11.5 11.4 99 1015.6 20.6 S 27.3 0.0 1.4
14:19 11.5 11.4 99 1015.8 20.6 S 27.3 0.0 1.4
14:20 11.5 11.4 99 1015.9 19.7 SW 27.3 0.0 1.4
14:21 11.5 11.4 99 1015.7 21.3 W 27.3 0.0 1.4
14:22 11.5 11.4 99 1015.7 21.3 S 22.8 0.0 1.4
14:23 11.5 11.4 99 1015.7 18.3 S 22.8 0.0 1.4
14:24 11.5 11.4 99 1015.7 15.9 S 22.8 0.0 1.4
14:25 11.5 11.4 99 1015.7 18.3 S 22.1 0.0 1.4
14:26 11.5 11.4 99 1015.7 19.0 NW 21.3 0.0 1.4
14:27 11.5 11.4 99 1015.9 18.3 S 21.3 0.0 1.4
14:28 11.5 11.4 99 1016.0 20.6 S 21.3 0.0 1.4
14:29 11.5 11.4 99 1015.8 17.4 S 21.3 0.0 1.4
14:30 11.4 11.3 99 1015.9 14.5 SE 21.3 0.0 1.4
14:31 11.4 11.3 99 1015.8 16.8 S 21.3 0.0 1.4
14:32 11.4 11.3 99 1015.8 17.4 S 21.3 0.0 1.4
14:33 11.4 11.3 99 1015.8 17.4 S 20.6 0.0 1.4
14:34 11.4 11.3 99 1015.9 16.8 SE 20.6 0.0 1.4
14:35 11.4 11.3 99 1015.8 15.9 S 20.6 0.0 1.4
14:36 11.4 11.3 99 1015.8 17.4 SE 20.6 0.0 1.4
14:37 11.4 11.3 99 1015.8 22.1 WSW 22.1 0.0 1.5
14:38 11.4 11.3 99 1015.8 17.4 S 22.1 0.8 1.5
14:39 11.4 11.3 99 1015.9 19.0 S 22.1 0.8 1.5
14:40 11.4 11.3 99 1016.0 15.9 S 22.1 0.8 1.5
14:41 11.4 11.3 99 1016.1 19.7 S 22.1 0.8 1.5
14:42 11.4 11.3 99 1016.1 19.0 S 22.1 0.8 1.5
14:43 11.4 11.3 99 1016.2 19.7 S 22.1 0.0 1.5
14:44 11.4 11.3 99 1016.1 19.0 S 23.5 0.0 1.5
14:45 11.4 11.3 99 1015.9 17.4 S 23.5 0.0 1.5
14:46 11.4 11.3 99 1016.0 19.7 S 23.5 0.0 1.5
14:47 11.4 11.3 99 1016.2 18.3 SE 23.5 0.0 1.5
14:48 11.4 11.3 99 1016.0 22.1 SE 23.5 0.0 1.5
14:49 11.4 11.3 99 1015.9 22.8 S 23.5 0.0 1.5
14:50 11.4 11.3 99 1015.9 21.3 S 23.5 0.0 1.5
14:51 11.4 11.3 99 1015.9 16.8 S 23.5 0.0 1.5
14:52 11.4 11.3 99 1016.0 18.3 S 23.5 0.0 1.5
14:53 11.3 11.2 99 1015.9 15.9 SE 23.5 0.0 1.5
14:54 11.4 11.3 99 1015.9 21.3 NW 22.8 0.0 1.5
14:55 11.4 11.3 99 1015.9 23.5 S 23.5 0.0 1.5
14:56 11.4 11.3 99 1015.9 20.6 WSW 23.5 0.0 1.5
14:57 11.4 11.3 99 1016.0 20.6 S 23.5 0.0 1.5
14:58 11.4 11.3 99 1015.9 21.3 S 23.5 0.0 1.5
14:59 11.4 11.3 99 1015.9 18.3 S 23.5 0.0 1.5
15:00 11.4 11.3 99 1016.1 18.3 S 23.5 0.0 1.5
15:01 11.4 11.3 99 1016.1 18.3 S 23.5 0.0 1.5
15:02 11.4 11.3 99 1016.2 18.3 SE 26.6 0.0 1.5
15:03 11.4 11.3 99 1016.2 19.0 W 26.6 0.0 1.5
15:04 11.4 11.3 99 1016.1 17.4 S 26.6 0.0 1.5
15:05 11.4 11.3 99 1016.1 19.7 S 26.6 0.0 1.5
15:06 11.3 11.2 99 1015.9 22.1 SE 26.6 0.0 1.5
15:07 11.4 11.3 99 1016.1 18.3 S 26.6 0.0 1.5
15:08 11.3 11.2 99 1016.1 22.1 S 26.6 0.0 1.5
15:09 11.4 11.3 99 1016.1 19.0 NW 26.6 0.0 1.5
15:10 11.4 11.3 99 1016.1 20.6 S 26.6 0.0 1.5
15:11 11.4 11.3 99 1016.0 20.6 S 26.6 0.0 1.5
15:12 11.4 11.3 99 1015.9 22.1 S 22.1 0.0 1.5
15:13 11.3 11.2 99 1015.8 22.8 S 22.8 0.0 1.5
15:15 11.3 11.2 99 1016.1 26.6 S 26.6 0.0 1.5
15:16 11.3 11.2 99 1015.9 19.7 S 26.6 0.8 1.6
15:17 11.3 11.2 99 1016.1 19.0 S 26.6 0.8 1.6
15:18 11.3 11.2 99 1016.1 15.9 S 26.6 0.8 1.6
15:19 11.3 11.2 99 1016.1 20.6 SE 26.6 0.8 1.6
15:20 11.3 11.2 99 1016.1 17.4 S 26.6 0.8 1.6
15:21 11.3 11.2 99 1016.0 15.9 S 26.6 0.0 1.6
15:22 11.3 11.2 99 1016.0 20.6 S 26.6 0.0 1.6
15:23 11.3 11.2 99 1016.0 22.1 S 26.6 0.0 1.6
15:24 11.3 11.2 99 1016.0 16.8 S 26.6 0.0 1.6
15:25 11.3 11.2 99 1016.0 14.5 SE 22.1 0.0 1.6
15:26 11.3 11.2 99 1016.0 19.7 SW 22.1 0.0 1.6
15:27 11.3 11.2 99 1016.2 18.3 S 22.1 0.0 1.6
15:28 11.2 11.1 99 1016.0 15.9 S 22.1 0.0 1.6
15:29 11.2 11.1 99 1016.1 15.2 S 22.1 0.0 1.6
15:30 11.3 11.2 99 1016.0 19.0 S 22.1 0.0 1.6
15:31 11.2 11.1 99 1016.1 20.6 S 22.1 0.0 1.6
15:32 11.2 11.1 99 1016.2 15.9 NNE 22.1 0.0 1.6
15:33 11.2 11.1 99 1016.2 15.9 NNE 22.1 0.0 1.6
15:34 11.2 11.1 99 1016.1 17.4 S 21.3 0.0 1.6
15:35 11.2 11.1 99 1016.1 15.9 S 21.3 0.0 1.6
15:36 11.2 11.1 99 1016.0 17.4 S 21.3 0.0 1.6
15:37 11.2 11.1 99 1016.1 14.5 S 21.3 0.0 1.6
15:38 11.1 11.0 99 1016.0 14.5 S 21.3 0.0 1.6
15:39 11.1 11.0 99 1016.1 14.5 S 21.3 0.0 1.6
15:40 11.2 11.1 99 1016.1 15.9 WSW 21.3 0.0 1.6
15:41 11.1 11.0 99 1016.1 17.4 WSW 21.3 0.0 1.6
15:42 11.2 11.1 99 1016.1 17.4 S 21.3 0.0 1.6
15:43 11.1 11.0 99 1016.1 14.5 S 18.3 0.0 1.6
15:44 11.1 11.0 99 1016.2 14.5 S 18.3 0.0 1.6
15:45 11.1 11.0 99 1016.2 15.2 S 18.3 0.0 1.6
15:46 11.1 11.0 99 1016.3 10.7 S 17.4 0.0 1.6
15:47 11.2 11.1 99 1016.2 14.5 SE 17.4 0.0 1.6
15:48 11.1 11.0 99 1016.3 15.9 S 17.4 0.0 1.6
15:49 11.2 11.1 99 1016.2 13.6 S 17.4 0.8 1.6
15:50 11.2 11.1 99 1016.3 13.6 S 17.4 0.8 1.6
15:51 11.2 11.1 99 1016.3 15.2 S 17.4 0.8 1.6
15:53 11.1 11.0 99 1016.2 13.0 S 18.3 0.8 1.6
15:54 11.2 11.1 99 1016.2 15.2 S 18.3 0.0 1.6
15:55 11.1 11.0 99 1016.1 17.4 S 18.3 0.0 1.6
15:56 11.2 11.1 99 1016.3 15.2 SE 18.3 0.0 1.6
15:57 11.1 11.0 99 1016.3 15.9 WSW 18.3 0.0 1.6
15:58 11.2 11.1 99 1016.3 15.9 S 18.3 0.0 1.6
15:59 11.2 11.1 99 1016.3 18.3 S 18.3 0.0 1.6
16:00 11.2 11.1 99 1016.2 13.6 S 18.3 0.0 1.6
16:01 11.2 11.1 99 1016.2 13.0 S 18.3 0.0 1.6
16:02 11.2 11.1 99 1016.3 13.6 W 18.3 0.0 1.6
16:03 11.2 11.1 99 1016.3 16.8 SE 18.3 0.0 1.6
16:04 11.2 11.1 99 1016.4 15.2 S 18.3 0.0 1.6
16:05 11.3 11.2 99 1016.3 16.8 S 18.3 0.0 1.6
16:06 11.2 11.1 99 1016.3 15.2 S 18.3 0.0 1.6
16:07 11.2 11.1 99 1016.3 15.9 S 18.3 0.0 1.6
16:08 11.2 11.1 99 1016.3 13.0 S 18.3 0.0 1.6
16:09 11.2 11.1 99 1016.5 15.2 S 16.8 0.0 1.6
16:11 11.2 11.1 99 1016.4 15.9 S 16.8 0.0 1.6
16:13 11.2 11.1 99 1016.4 13.6 S 19.7 0.8 1.7
16:15 11.2 11.1 99 1016.3 18.3 S 19.7 0.8 1.7
16:16 11.2 11.1 99 1016.5 16.8 S 19.7 0.8 1.7
16:18 11.2 11.1 99 1016.4 15.2 S 19.7 0.0 1.7
16:19 11.2 11.1 99 1016.4 13.6 S 19.7 0.0 1.7
16:20 11.2 11.1 99 1016.4 18.3 N 19.7 0.0 1.7
16:21 11.2 11.1 99 1016.4 16.8 S 19.7 0.0 1.7
16:22 11.2 11.1 99 1016.6 15.9 S 18.3 0.0 1.7
16:23 11.2 11.1 99 1016.5 14.5 S 18.3 0.0 1.7
16:24 11.2 11.1 99 1016.5 15.9 S 18.3 0.0 1.7
16:25 11.2 11.1 99 1016.6 15.2 S 21.3 0.0 1.7
16:27 11.2 11.1 99 1016.4 17.4 S 21.3 0.0 1.7
16:28 11.2 11.1 99 1016.5 15.9 WNW 21.3 0.0 1.7
16:29 11.2 11.1 99 1016.6 13.6 WSW 21.3 0.0 1.7
16:30 11.2 11.1 99 1016.7 16.8 WNW 21.3 0.0 1.7
16:31 11.2 11.1 99 1016.6 16.8 S 21.3 0.0 1.7
16:33 11.2 11.1 99 1016.6 17.4 SE 21.3 0.0 1.7
16:34 11.2 11.1 99 1016.7 15.9 WSW 21.3 0.0 1.7
16:35 11.2 11.1 99 1016.7 19.0 S 22.8 0.0 1.7
16:36 11.2 11.1 99 1016.6 14.5 SE 22.8 0.0 1.7
16:37 11.2 11.1 99 1016.6 18.3 S 22.8 0.0 1.7
16:38 11.2 11.1 99 1016.7 16.8 S 22.8 0.0 1.7
16:40 11.2 11.1 99 1016.7 17.4 S 22.8 0.0 1.7
16:41 11.2 11.1 99 1016.7 15.9 S 22.8 0.0 1.7
16:42 11.2 11.1 99 1016.8 15.2 S 22.8 0.0 1.7
16:43 11.3 11.2 99 1016.7 17.4 S 22.8 0.0 1.7
16:44 11.3 11.2 99 1016.9 18.3 S 22.8 0.0 1.7
16:45 11.3 11.2 99 1016.7 17.4 S 21.3 0.0 1.7
16:46 11.2 11.1 99 1016.5 16.8 S 21.3 0.0 1.7
16:47 11.3 11.2 99 1016.7 17.4 S 21.3 0.0 1.7
16:48 11.2 11.1 99 1016.7 18.3 S 21.3 0.0 1.8
16:49 11.3 11.2 99 1016.6 18.3 S 21.3 0.8 1.8
16:50 11.3 11.2 99 1016.5 15.9 S 21.3 0.8 1.8
16:51 11.2 11.1 99 1016.7 16.8 S 21.3 0.8 1.8
16:52 11.3 11.2 99 1016.7 18.3 S 21.3 0.8 1.8
16:53 11.2 11.1 99 1016.9 17.4 S 22.1 0.8 1.8
16:54 11.2 11.1 99 1016.7 13.6 S 22.1 0.0 1.8
16:55 11.3 11.2 99 1016.6 21.3 NNE 22.1 0.0 1.8
16:56 11.3 11.2 99 1016.6 19.7 SE 22.1 0.0 1.8
16:57 11.2 11.1 99 1016.6 14.5 WSW 22.1 0.0 1.8
16:58 11.3 11.2 99 1016.7 19.7 S 22.1 0.0 1.8
16:59 11.2 11.1 99 1016.7 18.3 S 22.1 0.0 1.8
17:01 11.2 11.1 99 1016.7 18.3 S 22.1 0.0 1.8
17:02 11.2 11.1 99 1016.8 18.3 S 22.1 0.0 1.8
17:03 11.2 11.1 99 1016.8 18.3 S 22.1 0.0 1.8
17:04 11.2 11.1 99 1016.7 20.6 S 21.3 0.0 1.8
17:05 11.2 11.1 99 1016.7 17.4 S 21.3 0.0 1.8
17:06 11.2 11.1 99 1016.7 17.4 NE 20.6 0.0 1.8
17:07 11.2 11.1 99 1016.6 13.0 SE 20.6 0.0 1.8
17:08 11.2 11.1 99 1016.6 22.1 SE 22.1 0.0 1.8
17:09 11.2 11.1 99 1016.6 19.0 S 22.1 0.0 1.8
17:10 11.2 11.1 99 1016.7 12.1 S 22.1 0.0 1.8
17:11 11.3 11.2 99 1016.7 20.6 S 22.1 0.0 1.8
17:12 11.3 11.2 99 1016.7 15.2 S 22.1 0.0 1.8
17:13 11.3 11.2 99 1016.6 21.3 S 22.1 0.0 1.8
17:14 11.3 11.2 99 1016.8 17.4 S 22.1 0.0 1.8
17:15 11.3 11.2 99 1016.8 14.5 S 22.1 0.0 1.8
17:16 11.3 11.2 99 1016.7 16.8 S 22.1 0.0 1.8
17:17 11.4 11.3 99 1016.8 19.0 S 27.3 0.0 1.8
17:18 11.4 11.3 99 1016.9 24.4 SE 27.3 0.0 1.8
17:19 11.4 11.3 99 1016.9 19.7 SE 27.3 0.0 1.8
17:21 11.4 11.3 99 1016.8 19.7 S 27.3 0.0 1.8
17:22 11.4 11.3 99 1016.8 19.0 SE 27.3 0.0 1.8
17:23 11.4 11.3 99 1016.8 19.7 SW 27.3 0.0 1.8
17:24 11.4 11.3 99 1017.0 21.3 S 27.3 0.0 1.8
17:25 11.5 11.4 99 1016.8 23.5 SE 27.3 0.0 1.8
17:26 11.5 11.4 99 1016.9 25.1 S 27.3 0.0 1.8
17:27 11.5 11.4 99 1016.8 22.1 S 27.3 0.0 1.8
17:28 11.6 11.5 99 1016.9 23.5 S 25.1 0.0 1.8
17:29 11.6 11.5 99 1017.0 22.1 S 25.1 0.0 1.8
17:30 11.6 11.5 99 1017.0 25.9 WNW 25.9 0.0 1.8
17:31 11.6 11.5 99 1017.0 24.4 S 25.9 0.0 1.8
17:32 11.6 11.5 99 1017.0 18.3 S 25.9 0.0 1.8
17:33 11.6 11.5 99 1017.0 20.6 S 25.9 0.0 1.8
17:34 11.6 11.5 99 1016.9 20.6 NNW 25.9 0.0 1.8
17:35 11.6 11.5 99 1016.9 18.3 S 25.9 0.0 1.8
17:36 11.6 11.5 99 1017.1 21.3 S 25.9 0.0 1.8
17:37 11.6 11.5 99 1017.0 22.1 SE 25.9 0.0 1.8
17:38 11.6 11.5 99 1016.9 19.7 S 25.9 0.0 1.8
17:39 11.6 11.5 99 1016.8 19.0 SE 25.9 0.0 1.8
17:40 11.6 11.5 99 1016.9 19.0 SE 24.4 0.0 1.8
17:41 11.6 11.5 99 1016.9 19.7 WNW 22.1 0.0 1.8
17:42 11.6 11.5 99 1017.0 22.8 SE 22.8 0.0 1.8
17:44 11.6 11.5 99 1016.9 14.5 S 22.8 0.0 1.8
17:45 11.6 11.5 99 1017.0 18.3 S 22.8 0.0 1.8
17:46 11.6 11.5 99 1017.2 19.0 S 22.8 0.0 1.8
17:47 11.6 11.5 99 1017.1 19.7 SE 22.8 0.0 1.8
17:48 11.6 11.5 99 1017.1 22.8 S 22.8 0.0 1.8
17:49 11.6 11.5 99 1017.3 25.1 S 25.1 0.0 1.8
17:50 11.6 11.5 99 1017.1 25.1 S 25.1 0.0 1.8
17:51 11.6 11.5 99 1017.2 22.8 SE 25.1 0.0 1.8
17:52 11.6 11.5 99 1017.2 23.5 WSW 25.1 0.0 1.8
17:54 11.6 11.5 99 1017.0 20.6 S 25.1 0.0 1.8
17:55 11.6 11.5 99 1017.1 23.5 S 25.1 0.0 1.8
17:56 11.6 11.5 99 1017.1 19.0 S 25.1 0.0 1.8
17:57 11.6 11.5 99 1017.1 19.7 WSW 25.1 0.0 1.8
17:58 11.6 11.5 99 1017.2 19.0 S 25.1 0.0 1.8
17:59 11.6 11.5 99 1017.3 16.8 S 25.1 0.0 1.8
18:00 11.6 11.5 99 1017.2 16.8 S 24.4 0.0 1.8
18:01 11.6 11.5 99 1017.3 23.5 S 24.4 0.0 1.8
18:03 11.6 11.5 99 1017.3 19.0 WSW 24.4 0.0 1.8
18:04 11.6 11.5 99 1017.2 21.3 SE 23.5 0.0 1.8
18:07 11.6 11.5 99 1017.2 17.4 S 23.5 0.8 1.8
18:09 11.6 11.5 99 1017.2 19.7 S 23.5 0.8 1.8
18:10 11.6 11.5 99 1017.2 19.0 SE 23.5 0.8 1.8
18:11 11.6 11.5 99 1017.2 20.6 S 23.5 0.0 1.8
18:13 11.6 11.5 99 1017.3 18.3 S 22.8 0.0 1.8
18:14 11.6 11.5 99 1017.4 21.3 S 22.8 0.0 1.8
18:16 11.6 11.5 99 1017.3 19.7 SE 22.8 0.0 1.8
18:18 11.6 11.5 99 1017.2 23.5 S 23.5 0.0 1.8
18:19 11.6 11.5 99 1017.2 17.4 S 23.5 0.0 1.8
18:21 11.6 11.5 99 1017.2 15.2 S 23.5 0.8 1.9
18:22 11.6 11.5 99 1017.1 18.3 S 23.5 0.8 1.9
18:23 11.6 11.5 99 1017.2 19.7 S 23.5 0.8 1.9
18:24 11.6 11.5 99 1017.3 20.6 SE 23.5 0.8 1.9
18:25 11.6 11.5 99 1017.2 14.5 S 23.5 0.8 1.9
18:26 11.6 11.5 99 1017.2 11.4 S 23.5 0.0 1.9
18:27 11.5 11.4 99 1017.2 17.4 E 23.5 0.0 1.9
18:28 11.6 11.5 99 1017.2 16.8 W 23.5 0.0 1.9
18:29 11.6 11.5 99 1017.0 19.7 SE 20.6 0.0 2.0
18:30 11.6 11.5 99 1017.2 23.5 NNW 23.5 0.8 2.0
18:31 11.6 11.5 99 1017.2 15.9 SE 24.4 0.8 2.0
18:32 11.6 11.5 99 1017.4 19.7 SE 24.4 0.8 2.0
18:33 11.6 11.5 99 1017.2 21.3 S 24.4 0.8 2.0
18:35 11.6 11.5 99 1017.2 17.4 SE 24.4 0.0 2.0
18:36 11.6 11.5 99 1017.2 17.4 S 24.4 0.0 2.0
18:37 11.6 11.5 99 1017.3 18.3 SE 24.4 0.0 2.0
18:38 11.6 11.5 99 1017.2 17.4 S 24.4 0.0 2.0
18:39 11.6 11.5 99 1017.2 16.8 S 24.4 0.8 2.0
18:41 11.6 11.5 99 1017.3 19.0 S 24.4 0.8 2.0
18:42 11.6 11.5 99 1017.3 22.8 S 22.8 0.8 2.0
18:43 11.6 11.5 99 1017.3 18.3 S 22.8 0.8 2.0
18:44 11.6 11.5 99 1017.1 21.3 S 22.8 0.0 2.0
18:45 11.6 11.5 99 1017.1 19.7 S 22.8 0.0 2.0
18:46 11.6 11.5 99 1017.0 21.3 SE 22.8 0.0 2.0
18:47 11.6 11.5 99 1017.0 15.9 WNW 22.8 0.0 2.0
18:48 11.7 11.6 99 1017.1 18.3 S 22.8 0.0 2.0
18:49 11.7 11.6 99 1017.1 15.2 SE 22.8 0.0 2.0
18:50 11.7 11.6 99 1016.9 15.2 SE 22.8 0.0 2.0
18:51 11.6 11.5 99 1016.9 19.7 S 22.8 0.0 2.0
18:52 11.7 11.6 99 1017.1 18.3 NE 21.3 0.0 2.0
18:53 11.7 11.6 99 1017.0 20.6 SE 21.3 0.0 2.0
18:55 11.6 11.5 99 1017.2 18.3 S 21.3 0.0 2.0
18:57 11.7 11.6 99 1017.3 25.1 SE 25.1 0.0 2.0
18:58 11.7 11.6 99 1017.2 20.6 SE 25.1 0.0 2.0
19:00 11.7 11.6 99 1017.1 22.8 S 27.3 0.0 2.0
19:01 11.7 11.6 99 1017.2 22.8 S 27.3 0.0 2.0
19:02 11.7 11.6 99 1017.2 15.2 S 27.3 0.0 2.0
19:03 11.7 11.6 99 1017.1 17.4 S 27.3 0.0 2.0
19:05 11.7 11.6 99 1017.2 20.6 S 27.3 0.0 2.0
19:06 11.7 11.6 99 1017.2 18.3 S 27.3 0.0 2.0
19:07 11.7 11.6 99 1017.3 13.6 SE 27.3 0.0 2.0
19:08 11.7 11.6 99 1017.3 21.3 S 27.3 0.0 2.0
19:09 11.7 11.6 99 1017.5 24.4 S 24.4 0.0 2.0
19:11 11.7 11.6 99 1017.2 23.5 SE 24.4 0.0 2.0
19:12 11.7 11.6 99 1017.3 15.9 NNE 24.4 0.0 2.0
19:13 11.7 11.6 99 1017.2 21.3 S 24.4 0.0 2.0
19:14 11.7 11.6 99 1017.4 19.0 SE 24.4 0.0 2.0
19:15 11.7 11.6 99 1017.3 24.4 S 24.4 0.0 2.0
19:16 11.7 11.6 99 1017.4 19.7 S 24.4 0.0 2.0
19:17 11.7 11.6 99 1017.5 24.4 NW 24.4 0.0 2.0
19:18 11.7 11.6 99 1017.3 22.8 S 27.3 0.0 2.0
19:19 11.7 11.6 99 1017.2 18.3 SE 27.3 0.0 2.0
19:20 11.7 11.6 99 1017.1 22.8 SE 27.3 0.0 2.0
19:21 11.7 11.6 99 1017.2 25.1 N 27.3 0.0 2.0
19:22 11.7 11.6 99 1017.2 22.8 S 27.3 0.0 2.0
19:23 11.8 11.7 99 1017.3 22.8 SE 27.3 0.0 2.0
19:25 11.7 11.6 99 1017.3 23.5 S 27.3 0.0 2.0
19:26 11.7 11.6 99 1017.2 22.1 SE 27.3 0.0 2.0
19:28 11.7 11.6 99 1017.3 21.3 S 25.1 0.0 2.0
19:29 11.8 11.7 99 1017.4 23.5 NW 25.1 0.0 2.0
19:30 11.8 11.7 99 1017.5 22.8 S 25.1 0.0 2.0
19:31 11.8 11.7 99 1017.5 18.3 S 25.1 0.0 2.0
19:33 11.8 11.7 99 1017.4 17.4 SE 23.5 0.0 2.0
19:34 11.8 11.7 99 1017.4 19.7 S 23.5 0.0 2.0
19:35 11.8 11.7 99 1017.4 15.9 S 23.5 0.0 2.0
19:36 11.8 11.7 99 1017.5 21.3 S 23.5 0.0 2.0
19:37 11.8 11.7 99 1017.3 19.0 SE 23.5 0.0 2.0
19:39 11.8 11.7 99 1017.6 18.3 S 23.5 0.0 2.0
19:40 11.8 11.7 99 1017.6 23.5 S 23.5 0.0 2.0
19:41 11.8 11.7 99 1017.6 22.8 S 23.5 0.0 2.0
19:42 11.8 11.7 99 1017.6 19.7 WNW 23.5 0.0 2.0
19:43 11.8 11.7 99 1017.6 24.4 S 24.4 0.0 2.0
19:44 11.8 11.7 99 1017.7 23.5 WSW 24.4 0.0 2.0
19:45 11.8 11.7 99 1017.7 20.6 S 24.4 0.0 2.0
19:47 11.8 11.7 99 1017.7 19.0 SE 24.4 0.0 2.0
19:48 11.8 11.7 99 1017.7 16.8 S 24.4 0.0 2.0
19:49 11.8 11.7 99 1017.7 18.3 S 24.4 0.0 2.0
19:50 11.8 11.7 99 1017.7 25.1 S 25.1 0.0 2.0
19:51 11.8 11.7 99 1017.7 22.1 S 25.1 0.0 2.0
19:52 11.8 11.7 99 1017.8 23.5 S 25.1 0.0 2.0
19:54 11.8 11.7 99 1017.9 23.5 NW 25.1 0.0 2.0
19:55 11.8 11.7 99 1018.0 25.9 S 25.9 0.0 2.0
19:56 11.8 11.7 99 1017.9 17.4 NE 25.9 0.0 2.0
19:57 11.8 11.7 99 1017.9 18.3 S 25.9 0.0 2.0
19:58 11.7 11.6 99 1017.8 20.6 SE 25.9 0.0 2.0
19:59 11.8 11.7 99 1017.7 22.1 S 25.9 0.0 2.0
20:00 11.8 11.7 99 1017.9 22.1 S 25.9 0.0 2.0
20:01 11.8 11.7 99 1017.9 22.1 S 25.9 0.0 2.0
20:02 11.8 11.7 99 1017.9 16.8 S 25.9 0.0 2.0
20:03 11.7 11.6 99 1017.9 17.4 S 25.9 0.0 2.0
20:04 11.7 11.6 99 1017.9 14.5 S 25.9 0.0 2.0
20:05 11.7 11.6 99 1017.9 16.8 S 22.1 0.0 2.0
20:07 11.7 11.6 99 1017.8 19.7 SE 22.1 0.0 2.0
20:08 11.7 11.6 99 1017.8 18.3 S 22.1 0.0 2.0
20:09 11.7 11.6 99 1017.9 19.7 W 22.1 0.0 2.0
20:10 11.7 11.6 99 1018.1 18.3 WNW 22.1 0.0 2.0
20:12 11.7 11.6 99 1018.0 25.9 S 25.9 0.0 2.0
20:13 11.7 11.6 99 1018.1 21.3 S 25.9 0.0 2.0
20:15 11.7 11.6 99 1018.1 18.3 S 25.9 0.0 2.0
20:16 11.7 11.6 99 1018.2 19.0 NNE 25.9 0.0 2.0
20:18 11.7 11.6 99 1018.1 22.8 S 25.9 0.0 2.0
20:20 11.7 11.6 99 1018.2 25.1 SE 25.9 0.0 2.0
20:21 11.7 11.6 99 1018.1 17.4 NE 25.9 0.0 2.0
20:22 11.7 11.6 99 1018.1 19.7 S 25.1 0.0 2.0
20:24 11.7 11.6 99 1018.1 19.0 NW 25.1 0.0 2.0
20:25 11.7 11.6 99 1018.3 13.0 S 25.1 0.0 2.0
20:26 11.7 11.6 99 1018.2 16.8 S 25.1 0.0 2.0
20:27 11.7 11.6 99 1018.2 19.0 S 25.1 0.0 2.0
20:28 11.7 11.6 99 1018.3 21.3 S 25.1 0.0 2.0
20:30 11.7 11.6 99 1018.2 15.9 S 25.1 0.0 2.0
20:31 11.7 11.6 99 1018.3 16.8 SE 21.3 0.0 2.0
20:32 11.7 11.6 99 1018.4 16.8 S 21.3 0.0 2.0
20:33 11.7 11.6 99 1018.5 13.6 S 21.3 0.0 2.0
20:34 11.7 11.6 99 1018.4 22.1 S 22.8 0.0 2.0
20:35 11.7 11.6 99 1018.5 18.3 W 22.8 0.0 2.0
20:36 11.7 11.6 99 1018.3 19.0 SE 22.8 0.0 2.0
20:37 11.7 11.6 99 1018.5 23.5 S 23.5 0.0 2.0
20:38 11.7 11.6 99 1018.5 24.4 S 24.4 0.0 2.0
20:39 11.7 11.6 99 1018.5 22.8 S 24.4 0.0 2.0
20:40 11.7 11.6 99 1018.5 21.3 S 24.4 0.0 2.0
20:41 11.6 11.5 99 1018.5 15.9 S 24.4 0.0 2.0
20:42 11.6 11.5 99 1018.7 20.6 SE 24.4 0.0 2.0
20:43 11.7 11.6 99 1018.6 22.8 S 24.4 0.0 2.0
20:45 11.6 11.5 99 1018.6 17.4 S 24.4 0.0 2.0
20:46 11.6 11.5 99 1018.6 19.7 SE 24.4 0.0 2.0
20:47 11.6 11.5 99 1018.7 22.1 SE 24.4 0.0 2.0
20:48 11.6 11.5 99 1018.7 20.6 S 23.5 0.0 2.0
20:49 11.6 11.5 99 1018.6 20.6 SE 23.5 0.0 2.0
20:51 11.6 11.5 99 1018.5 14.5 S 23.5 0.0 2.0
20:52 11.6 11.5 99 1018.7 15.9 S 23.5 0.0 2.0
20:53 11.6 11.5 99 1018.6 19.0 SE 22.8 0.0 2.0
20:54 11.6 11.5 99 1018.7 21.3 S 22.1 0.0 2.0
20:55 11.6 11.5 99 1018.7 18.3 S 22.1 0.0 2.0
20:56 11.6 11.5 99 1018.6 15.9 S 22.1 0.0 2.0
20:57 11.6 11.5 99 1018.7 20.6 NNW 22.1 0.0 2.0
20:59 11.6 11.5 99 1018.7 19.0 SE 21.3 0.0 2.0
21:00 11.6 11.5 99 1018.7 20.6 S 21.3 0.0 2.0
21:01 11.6 11.5 99 1018.5 20.6 S 21.3 0.0 2.0
21:02 11.6 11.5 99 1018.7 20.6 S 21.3 0.0 2.0
21:03 11.6 11.5 99 1018.7 20.6 S 21.3 0.0 2.0
21:04 11.6 11.5 99 1018.8 20.6 S 20.6 0.0 2.0
21:05 11.6 11.5 99 1018.8 20.6 S 20.6 0.0 2.0
21:07 11.6 11.5 99 1018.7 15.9 WSW 20.6 0.0 2.0
21:08 11.6 11.5 99 1018.8 13.6 S 20.6 0.0 2.0
21:09 11.6 11.5 99 1018.7 14.5 S 22.1 0.0 2.0
21:10 11.6 11.5 99 1018.8 19.0 S 22.1 0.0 2.0
21:11 11.6 11.5 99 1018.8 22.1 S 22.1 0.0 2.0
21:13 11.6 11.5 99 1018.7 13.6 SE 22.1 0.0 2.0
21:14 11.6 11.5 99 1018.7 22.8 S 22.8 0.0 2.0
21:15 11.6 11.5 99 1018.9 19.0 S 22.8 0.0 2.0
21:16 11.6 11.5 99 1018.8 20.6 S 22.8 0.0 2.0
21:17 11.6 11.5 99 1018.8 19.0 S 22.8 0.0 2.0
21:18 11.6 11.5 99 1019.0 18.3 S 22.8 0.0 2.0
21:19 11.7 11.6 99 1018.9 19.7 S 24.4 0.0 2.0
21:20 11.7 11.6 99 1018.9 17.4 NW 24.4 0.0 2.0
21:22 11.6 11.5 99 1018.8 19.7 SE 26.6 0.0 2.0
21:23 11.7 11.6 99 1018.9 17.4 S 26.6 0.0 2.0
21:24 11.7 11.6 99 1019.0 19.0 SE 26.6 0.0 2.0
21:25 11.6 11.5 99 1019.1 18.3 S 26.6 0.0 2.0
21:26 11.7 11.6 99 1019.0 16.8 S 26.6 0.0 2.0
21:27 11.7 11.6 99 1019.1 15.2 S 26.6 0.0 2.0
21:28 11.7 11.6 99 1019.1 20.6 S 26.6 0.0 2.0
21:30 11.7 11.6 99 1019.2 15.2 SE 26.6 0.0 2.0
21:31 11.7 11.6 99 1019.1 23.5 S 26.6 0.0 2.0
21:32 11.7 11.6 99 1019.0 19.0 S 23.5 0.0 2.0
21:33 11.7 11.6 99 1019.0 18.3 S 23.5 0.0 2.0
21:35 11.7 11.6 99 1019.1 19.7 S 23.5 0.0 2.0
21:36 11.8 11.7 99 1019.1 17.4 NW 23.5 0.0 2.0
21:38 11.7 11.6 99 1019.1 22.1 SE 23.5 0.0 2.0
21:39 11.8 11.7 99 1019.3 21.3 N 23.5 0.0 2.0
21:40 11.7 11.6 99 1019.2 18.3 S 23.5 0.0 2.0
21:41 11.8 11.7 99 1019.2 15.9 S 22.1 0.0 2.0
21:43 11.7 11.6 99 1019.2 17.4 SE 22.1 0.0 2.0
21:44 11.8 11.7 99 1019.2 22.1 S 22.1 0.0 2.0
21:45 11.8 11.7 99 1019.4 19.0 S 22.1 0.0 2.0
21:46 11.8 11.7 99 1019.3 16.8 S 22.1 0.0 2.0
21:47 11.8 11.7 99 1019.4 22.8 S 22.8 0.0 2.0
21:49 11.8 11.7 99 1019.3 19.0 SE 22.8 0.0 2.0
21:50 11.8 11.7 99 1019.3 25.1 S 25.1 0.0 2.0
21:51 11.8 11.7 99 1019.3 19.0 S 25.1 0.0 2.0
21:52 11.8 11.7 99 1019.3 17.4 S 25.1 0.0 2.0
21:53 11.9 11.8 99 1019.3 19.7 SE 25.1 0.0 2.0
21:55 11.9 11.8 99 1019.5 18.3 SW 25.1 0.0 2.0
21:56 11.9 11.8 99 1019.6 17.4 S 25.1 0.0 2.0
21:57 11.8 11.7 99 1019.4 19.7 SE 25.1 0.0 2.0
21:58 11.9 11.8 99 1019.5 22.1 S 25.1 0.0 2.0
21:59 11.9 11.8 99 1019.3 18.3 S 25.1 0.0 2.0
22:00 11.9 11.8 99 1019.4 18.3 S 22.1 0.0 2.0
22:02 11.9 11.8 99 1019.4 18.3 S 22.1 0.0 2.0
22:03 11.9 11.8 99 1019.3 18.3 S 22.1 0.0 2.0
22:04 11.9 11.8 99 1019.4 18.3 S 22.1 0.0 2.0
22:06 11.9 11.8 99 1019.6 18.3 S 22.1 0.0 2.0
22:07 11.9 11.8 99 1019.5 17.4 S 22.1 0.0 2.0
22:08 11.9 11.8 99 1019.6 13.6 S 22.1 0.0 2.0
22:10 11.9 11.8 99 1019.6 17.4 SE 18.3 0.0 2.0
22:11 11.9 11.8 99 1019.6 24.4 S 24.4 0.0 2.0
22:13 12.0 11.9 99 1019.6 22.1 S 24.4 0.0 2.0
22:15 12.0 11.9 99 1019.8 17.4 SW 24.4 0.0 2.0
22:16 11.9 11.8 99 1019.6 17.4 S 24.4 0.8 2.1
22:18 12.0 11.9 99 1019.7 18.3 S 24.4 0.8 2.1
22:20 11.9 11.8 99 1019.7 17.4 SE 24.4 0.8 2.1
22:21 11.9 11.8 99 1019.7 19.0 S 24.4 0.0 2.1
22:23 11.9 11.8 99 1019.7 19.0 S 24.4 0.0 2.1
22:25 11.9 11.8 99 1019.8 17.4 S 24.4 0.0 2.1
22:26 11.9 11.8 99 1019.7 20.6 S 21.3 0.0 2.1
22:28 11.8 11.7 99 1019.7 16.8 S 21.3 0.0 2.1
22:29 11.9 11.8 99 1019.7 16.8 S 21.3 0.0 2.1
22:31 11.8 11.7 99 1019.7 15.9 S 20.6 0.0 2.1
22:32 11.8 11.7 99 1019.8 20.6 S 20.6 0.0 2.1
22:33 11.8 11.7 99 1019.8 22.1 S 22.1 0.0 2.1
22:34 11.8 11.7 99 1019.7 18.3 S 22.1 0.0 2.1
22:36 11.8 11.7 99 1019.6 19.0 SE 22.1 0.0 2.1
22:37 11.8 11.7 99 1019.8 20.6 SE 22.1 0.0 2.1
22:38 11.8 11.7 99 1019.8 24.4 SE 24.4 0.0 2.1
22:39 11.8 11.7 99 1019.7 19.0 N 24.4 0.0 2.1
22:40 11.8 11.7 99 1019.7 19.7 S 24.4 0.0 2.1
22:41 11.8 11.7 99 1019.6 19.7 S 24.4 0.0 2.1
22:43 11.8 11.7 99 1019.7 25.1 WSW 25.1 0.0 2.1
22:44 11.8 11.7 99 1019.7 18.3 NNW 25.1 0.0 2.1
22:45 11.8 11.7 99 1019.7 18.3 S 25.1 0.0 2.1
22:46 11.8 11.7 99 1019.7 19.0 SE 25.1 0.0 2.1
22:47 11.8 11.7 99 1019.7 20.6 SE 25.1 0.0 2.1
22:48 11.8 11.7 99 1019.7 23.5 S 25.1 0.0 2.1
22:49 11.8 11.7 99 1019.6 20.6 S 25.1 0.0 2.1
22:51 11.8 11.7 99 1019.7 19.0 SE 25.1 0.0 2.1
22:52 11.8 11.7 99 1019.6 17.4 S 25.1 0.0 2.1
22:53 11.8 11.7 99 1019.6 20.6 S 23.5 0.0 2.1
22:54 11.8 11.7 99 1019.6 15.2 S 23.5 0.0 2.1
22:55 11.8 11.7 99 1019.5 15.9 S 23.5 0.0 2.1
22:56 11.8 11.7 99 1019.7 16.8 SE 23.5 0.0 2.1
22:57 11.8 11.7 99 1019.5 19.7 S 23.5 0.0 2.1
22:58 11.8 11.7 99 1019.7 16.8 SE 23.5 0.0 2.1
23:00 11.8 11.7 99 1019.8 22.8 S 22.8 0.0 2.1
23:01 11.8 11.7 99 1019.7 22.8 S 22.8 0.0 2.1
23:02 11.8 11.7 99 1019.8 22.8 S 22.8 0.0 2.1
23:03 11.8 11.7 99 1019.7 22.8 S 22.8 0.0 2.1
23:04 11.8 11.7 99 1019.8 22.8 S 22.8 0.0 2.1
23:05 11.8 11.7 99 1019.8 22.8 S 22.8 0.0 2.1
23:06 11.8 11.7 99 1019.8 22.1 S 22.8 0.0 2.1
23:08 11.8 11.7 99 1019.9 22.1 SE 22.8 0.0 2.1
23:09 11.8 11.7 99 1019.9 18.3 S 22.8 0.0 2.1
23:10 11.8 11.7 99 1020.1 19.0 S 22.8 0.0 2.1
23:11 11.8 11.7 99 1019.9 13.6 S 22.8 0.0 2.1
23:12 11.8 11.7 99 1020.0 13.0 S 22.8 0.0 2.1
23:13 11.8 11.7 99 1020.0 15.9 S 22.8 0.0 2.1
23:15 11.8 11.7 99 1019.9 17.4 NE 22.8 0.0 2.1
23:16 11.8 11.7 99 1020.1 22.1 SE 22.1 0.0 2.1
23:17 11.8 11.7 99 1020.0 14.5 S 22.1 0.0 2.1
23:18 11.8 11.7 99 1019.9 19.7 S 22.1 0.0 2.1
23:20 11.8 11.7 99 1019.9 19.7 SE 25.1 0.0 2.1
23:21 11.8 11.7 99 1019.8 21.3 SE 25.1 0.0 2.1
23:22 11.8 11.7 99 1019.9 15.2 S 25.1 0.0 2.1
23:23 11.8 11.7 99 1019.9 17.4 SE 25.1 0.0 2.1
23:25 11.8 11.7 99 1020.0 21.3 S 25.1 0.0 2.1
23:26 11.8 11.7 99 1019.8 22.8 S 25.1 0.0 2.1
23:27 11.8 11.7 99 1020.0 17.4 NW 25.1 0.0 2.1
23:28 11.8 11.7 99 1020.1 20.6 SE 25.1 0.0 2.1
23:30 11.8 11.7 99 1019.9 21.3 S 23.5 0.0 2.1
23:31 11.8 11.7 99 1020.0 16.8 S 23.5 0.0 2.1
23:32 11.8 11.7 99 1020.1 15.2 S 23.5 0.0 2.1
23:33 11.8 11.7 99 1020.0 19.7 S 23.5 0.0 2.1
23:35 11.8 11.7 99 1020.1 20.6 SE 23.5 0.0 2.1
23:36 11.8 11.7 99 1020.0 18.3 S 23.5 0.0 2.1
23:37 11.8 11.7 99 1020.0 19.0 S 23.5 0.0 2.1
23:38 11.8 11.7 99 1020.1 21.3 SE 23.5 0.0 2.1
23:39 11.8 11.7 99 1020.0 15.2 S 23.5 0.0 2.1
23:40 11.8 11.7 99 1020.1 15.9 S 22.8 0.0 2.1
23:41 11.8 11.7 99 1020.2 18.3 SE 22.8 0.0 2.1
23:43 11.8 11.7 99 1020.1 20.6 NNW 22.8 0.0 2.1
23:44 11.8 11.7 99 1020.1 20.6 SE 22.8 0.0 2.1
23:45 11.8 11.7 99 1020.1 19.0 S 21.3 0.0 2.1
23:46 11.8 11.7 99 1020.2 16.8 SE 21.3 0.0 2.1
23:47 11.8 11.7 99 1020.0 16.8 S 21.3 0.0 2.1
23:48 11.8 11.7 99 1020.2 19.7 S 21.3 0.0 2.1
23:49 11.8 11.7 99 1020.1 20.6 S 21.3 0.0 2.1
23:51 11.8 11.7 99 1020.0 22.8 S 22.8 0.0 2.1
23:52 11.8 11.7 99 1020.1 22.1 S 22.8 0.0 2.1
23:53 11.8 11.7 99 1020.0 24.4 SE 24.4 0.0 2.1
23:54 11.8 11.7 99 1020.1 21.3 W 24.4 0.0 2.1
23:55 11.8 11.7 99 1020.2 17.4 S 24.4 0.0 2.1
23:56 11.8 11.7 99 1020.1 19.0 SE 24.4 0.0 2.1
23:58 11.7 11.6 99 1020.1 17.4 S 24.4 0.0 2.1

UK - WEATHER STATION TOPSITES - UK World Weather Websites

This is a private weather station, never base important decisions or events on data from this weather station. Although every effort has been made to make the data as accurate as possible it does not meet MetOffice standards. It is proved as a guide of local weather conditions. We accept no liability for any loss which may arise from use of the data.

Copyright © Carnkie Weather 2009 - 2018.